| time (UTC) | temp F | wind direction | speed MPH | gust MPH | rain 1hr in | rain 24hr in | rain mn in | humidity % | barometer mb |
| 20260906223004 | 94 | 345 | 4.0 | 7.0 | 0.00 | 0.00 | 0.00 | 55 | 1009.1 |
| 20260906222903 | 94 | 316 | 2.0 | 7.0 | 0.00 | 0.00 | 0.00 | 55 | 1009.1 |
| 20260906222802 | 94 | 351 | 5.0 | 7.0 | 0.00 | 0.00 | 0.00 | 55 | 1009.1 |
| 20260906222701 | 94 | 336 | 4.0 | 7.0 | 0.00 | 0.00 | 0.00 | 56 | 1009.1 |
| 20260906222602 | 94 | 329 | 5.0 | 7.0 | 0.00 | 0.00 | 0.00 | 55 | 1009.0 |
| 20260906222504 | 94 | 336 | 5.0 | 7.0 | 0.00 | 0.00 | 0.00 | 55 | 1009.6 |
| 20260906222403 | 94 | 339 | 4.0 | 6.0 | 0.00 | 0.00 | 0.00 | 56 | 1009.6 |
| 20260906222305 | 94 | 356 | 3.0 | 6.0 | 0.00 | 0.00 | 0.00 | 55 | 1008.9 |
| 20260906222201 | 94 | 5 | 5.0 | 6.0 | 0.00 | 0.00 | 0.00 | 56 | 1009.0 |
| 20260906222102 | 94 | 347 | 4.0 | 6.0 | 0.00 | 0.00 | 0.00 | 56 | 1009.1 |
| 20260906222005 | 94 | 350 | 4.0 | 6.0 | 0.00 | 0.00 | 0.00 | 55 | 1009.0 |
| 20260906221903 | 94 | 345 | 5.0 | 6.0 | 0.00 | 0.00 | 0.00 | 55 | 1009.0 |
| 20260906221703 | 94 | 315 | 4.0 | 6.0 | 0.00 | 0.00 | 0.00 | 55 | 1009.0 |
| 20260906221603 | 94 | 351 | 3.0 | 6.0 | 0.00 | 0.00 | 0.00 | 55 | 1009.0 |
| 20260906221503 | 94 | 4 | 5.0 | 6.0 | 0.00 | 0.00 | 0.00 | 55 | 1009.0 |
| 20260906221402 | 94 | 342 | 3.0 | 6.0 | 0.00 | 0.00 | 0.00 | 55 | 1009.0 |
| 20260906221202 | 94 | 341 | 3.0 | 6.0 | 0.00 | 0.00 | 0.00 | 55 | 1009.0 |
| 20260906221102 | 94 | 324 | 3.0 | 6.0 | 0.00 | 0.00 | 0.00 | 54 | 1009.1 |
| 20260906221006 | 94 | 331 | 3.0 | 6.0 | 0.00 | 0.00 | 0.00 | 55 | 1008.9 |
| 20260906220802 | 94 | 360 | 4.0 | 6.0 | 0.00 | 0.00 | 0.00 | 55 | 1009.0 |
| 20260906220702 | 94 | 349 | 3.0 | 6.0 | 0.00 | 0.00 | 0.00 | 55 | 1009.0 |
| 20260906220603 | 94 | 344 | 4.0 | 6.0 | 0.00 | 0.00 | 0.00 | 56 | 1009.0 |
| 20260906220505 | 94 | 345 | 4.0 | 6.0 | 0.00 | 0.00 | 0.00 | 55 | 1009.0 |
| 20260906220402 | 94 | 8 | 5.0 | 6.0 | 0.00 | 0.00 | 0.00 | 56 | 1008.9 |
| 20260906220203 | 94 | 346 | 5.0 | 10.0 | 0.00 | 0.00 | 0.00 | 55 | 1008.9 |
| 20260906220005 | 94 | 349 | 4.0 | 10.0 | 0.00 | 0.00 | 0.00 | 57 | 1008.8 |
| 20260906215901 | 94 | 347 | 4.0 | 10.0 | 0.00 | 0.00 | 0.00 | 57 | 1008.7 |
| 20260906215801 | 94 | 4 | 2.0 | 10.0 | 0.00 | 0.00 | 0.00 | 58 | 1008.6 |
| 20260906215602 | 94 | 15 | 1.0 | 10.0 | 0.00 | 0.00 | 0.00 | 57 | 1008.5 |
| 20260906215503 | 94 | 334 | 4.0 | 10.0 | 0.00 | 0.00 | 0.00 | 56 | 1008.6 |
| 20260906215402 | 94 | 357 | 7.0 | 10.0 | 0.00 | 0.00 | 0.00 | 56 | 1008.5 |
| 20260906215301 | 94 | 320 | 3.0 | 7.0 | 0.00 | 0.00 | 0.00 | 57 | 1008.6 |
| 20260906215201 | 94 | 347 | 4.0 | 7.0 | 0.00 | 0.00 | 0.00 | 57 | 1008.5 |
| 20260906215004 | 94 | 357 | 0.0 | 7.0 | 0.00 | 0.00 | 0.00 | 56 | 1008.5 |
| 20260906214900 | 94 | 4 | 3.0 | 5.0 | 0.00 | 0.00 | 0.00 | 57 | 1008.5 |
| 20260906214801 | 94 | 37 | 1.0 | 5.0 | 0.00 | 0.00 | 0.00 | 58 | 1008.5 |
| 20260906214701 | 94 | 49 | 3.0 | 5.0 | 0.00 | 0.00 | 0.00 | 57 | 1008.5 |
| 20260906214601 | 94 | 94 | 2.0 | 5.0 | 0.00 | 0.00 | 0.00 | 57 | 1008.5 |
| 20260906214401 | 94 | 10 | 4.0 | 5.0 | 0.00 | 0.00 | 0.00 | 57 | 1008.5 |
| 20260906214301 | 94 | 340 | 3.0 | 5.0 | 0.00 | 0.00 | 0.00 | 56 | 1008.5 |
| 20260906214100 | 94 | 321 | 2.0 | 5.0 | 0.00 | 0.00 | 0.00 | 56 | 1008.5 |
| 20260906213900 | 94 | 353 | 2.0 | 5.0 | 0.00 | 0.00 | 0.00 | 57 | 1008.5 |
| 20260906213802 | 94 | 46 | 2.0 | 5.0 | 0.00 | 0.00 | 0.00 | 57 | 1008.5 |
| 20260906213701 | 94 | 348 | 4.0 | 5.0 | 0.00 | 0.00 | 0.00 | 56 | 1008.5 |
| 20260906213602 | 94 | 345 | 4.0 | 5.0 | 0.00 | 0.00 | 0.00 | 58 | 1008.6 |
| 20260906213503 | 94 | 354 | 3.0 | 6.0 | 0.00 | 0.00 | 0.00 | 58 | 1008.6 |
| 20260906213402 | 93 | 17 | 2.0 | 6.0 | 0.00 | 0.00 | 0.00 | 58 | 1008.6 |
| 20260906213202 | 93 | 337 | 3.0 | 6.0 | 0.00 | 0.00 | 0.00 | 57 | 1008.7 |
| 20260906213101 | 93 | 29 | 4.0 | 6.0 | 0.00 | 0.00 | 0.00 | 58 | 1008.6 |
| 20260906213004 | 93 | 342 | 4.0 | 6.0 | 0.00 | 0.00 | 0.00 | 59 | 1008.7 |
| 20260906212801 | 93 | 326 | 3.0 | 6.0 | 0.00 | 0.00 | 0.00 | 58 | 1008.7 |
| 20260906212701 | 93 | 336 | 4.0 | 7.0 | 0.00 | 0.00 | 0.00 | 58 | 1008.7 |
| 20260906212504 | 93 | 346 | 3.0 | 7.0 | 0.00 | 0.00 | 0.00 | 57 | 1008.8 |
| 20260906212401 | 94 | 318 | 3.0 | 7.0 | 0.00 | 0.00 | 0.00 | 57 | 1008.8 |
| 20260906212301 | 94 | 338 | 5.0 | 7.0 | 0.00 | 0.00 | 0.00 | 57 | 1008.8 |
| 20260906212202 | 94 | 349 | 3.0 | 7.0 | 0.00 | 0.00 | 0.00 | 58 | 1008.8 |
| 20260906212101 | 94 | 345 | 4.0 | 7.0 | 0.00 | 0.00 | 0.00 | 58 | 1008.8 |
| 20260906212006 | 94 | 335 | 4.0 | 7.0 | 0.00 | 0.00 | 0.00 | 58 | 1008.8 |
| 20260906211601 | 95 | 335 | 4.0 | 7.0 | 0.00 | 0.00 | 0.00 | 55 | 1008.6 |
| 20260906211503 | 95 | 317 | 3.0 | 7.0 | 0.00 | 0.00 | 0.00 | 55 | 1008.6 |
| 20260906211301 | 95 | 360 | 4.0 | 7.0 | 0.00 | 0.00 | 0.00 | 55 | 1008.6 |
| 20260906211200 | 95 | 326 | 4.0 | 6.0 | 0.00 | 0.00 | 0.00 | 56 | 1008.6 |
| 20260906211101 | 95 | 337 | 4.0 | 7.0 | 0.00 | 0.00 | 0.00 | 55 | 1008.6 |
| 20260906211005 | 96 | 336 | 4.0 | 8.0 | 0.00 | 0.00 | 0.00 | 54 | 1008.6 |
| 20260906210902 | 96 | 331 | 3.0 | 8.0 | 0.00 | 0.00 | 0.00 | 55 | 1008.5 |
| 20260906210802 | 95 | 359 | 4.0 | 8.0 | 0.00 | 0.00 | 0.00 | 55 | 1008.5 |
| 20260906210701 | 95 | 360 | 5.0 | 8.0 | 0.00 | 0.00 | 0.00 | 55 | 1008.6 |
| 20260906210602 | 96 | 341 | 3.0 | 8.0 | 0.00 | 0.00 | 0.00 | 55 | 1008.6 |
| 20260906210503 | 96 | 357 | 5.0 | 8.0 | 0.00 | 0.00 | 0.00 | 55 | 1008.6 |
| 20260906210401 | 96 | 4 | 4.0 | 8.0 | 0.00 | 0.00 | 0.00 | 54 | 1008.6 |
| 20260906210301 | 96 | 358 | 4.0 | 8.0 | 0.00 | 0.00 | 0.00 | 54 | 1008.7 |
| 20260906210201 | 96 | 356 | 3.0 | 8.0 | 0.00 | 0.00 | 0.00 | 54 | 1008.8 |
| 20260906210101 | 96 | 19 | 3.0 | 7.0 | 0.00 | 0.00 | 0.00 | 55 | 1008.7 |
| 20260906210006 | 96 | 357 | 5.0 | 7.0 | 0.00 | 0.00 | 0.00 | 54 | 1008.8 |
| 20260906205902 | 96 | 357 | 4.0 | 7.0 | 0.00 | 0.31 | 0.00 | 54 | 1008.8 |
| 20260906205801 | 96 | 360 | 3.0 | 8.0 | 0.00 | 0.31 | 0.00 | 53 | 1008.8 |
| 20260906205702 | 96 | 20 | 4.0 | 8.0 | 0.00 | 0.31 | 0.00 | 54 | 1008.8 |
| 20260906205503 | 96 | 15 | 5.0 | 8.0 | 0.00 | 0.31 | 0.00 | 54 | 1008.8 |
| 20260906205401 | 96 | 341 | 3.0 | 8.0 | 0.00 | 0.31 | 0.00 | 54 | 1008.8 |
| 20260906205305 | 96 | 15 | 3.0 | 8.0 | 0.00 | 0.31 | 0.00 | 53 | 1008.8 |
| 20260906205100 | 96 | 334 | 2.0 | 8.0 | 0.00 | 0.31 | 0.00 | 53 | 1008.9 |
| 20260906205004 | 96 | 330 | 5.0 | 8.0 | 0.00 | 0.31 | 0.00 | 53 | 1008.9 |
| 20260906204902 | 97 | 334 | 5.0 | 8.0 | 0.00 | 0.31 | 0.00 | 52 | 1008.8 |
| 20260906204802 | 97 | 334 | 7.0 | 8.0 | 0.00 | 0.31 | 0.00 | 54 | 1008.8 |
| 20260906204702 | 97 | 354 | 4.0 | 7.0 | 0.00 | 0.31 | 0.00 | 55 | 1008.8 |
| 20260906204601 | 97 | 15 | 4.0 | 7.0 | 0.00 | 0.31 | 0.00 | 55 | 1008.9 |
| 20260906204503 | 96 | 345 | 4.0 | 7.0 | 0.00 | 0.31 | 0.00 | 55 | 1008.9 |
| 20260906204400 | 96 | 18 | 1.0 | 7.0 | 0.00 | 0.31 | 0.00 | 54 | 1008.9 |
| 20260906204202 | 96 | 337 | 5.0 | 7.0 | 0.00 | 0.31 | 0.00 | 55 | 1008.9 |
| 20260906204101 | 95 | 26 | 2.0 | 9.0 | 0.00 | 0.31 | 0.00 | 54 | 1008.8 |
| 20260906204004 | 95 | 360 | 5.0 | 9.0 | 0.00 | 0.31 | 0.00 | 54 | 1008.8 |
| 20260906203901 | 95 | 353 | 3.0 | 9.0 | 0.00 | 0.31 | 0.00 | 53 | 1008.9 |
| 20260906203801 | 95 | 325 | 6.0 | 9.0 | 0.00 | 0.31 | 0.00 | 53 | 1008.9 |
| 20260906203602 | 96 | 358 | 5.0 | 9.0 | 0.00 | 0.31 | 0.00 | 54 | 1009.0 |
| 20260906203503 | 96 | 335 | 5.0 | 9.0 | 0.00 | 0.31 | 0.00 | 53 | 1009.0 |
| 20260906203401 | 96 | 11 | 6.0 | 9.0 | 0.00 | 0.31 | 0.00 | 52 | 1008.9 |
| 20260906203301 | 96 | 344 | 2.0 | 9.0 | 0.00 | 0.31 | 0.00 | 53 | 1009.0 |
| 20260906203201 | 96 | 337 | 6.0 | 9.0 | 0.00 | 0.31 | 0.00 | 52 | 1009.1 |
| 20260906203100 | 96 | 1 | 5.0 | 9.0 | 0.00 | 0.31 | 0.00 | 53 | 1009.1 |
| 20260906203004 | 96 | 351 | 7.0 | 9.0 | 0.00 | 0.31 | 0.00 | 52 | 1009.2 |
| 20260906202902 | 96 | 344 | 6.0 | 8.0 | 0.00 | 0.31 | 0.00 | 52 | 1009.1 |
| 20260906202801 | 96 | 333 | 5.0 | 6.0 | 0.00 | 0.31 | 0.00 | 52 | 1009.2 |
| 20260906202701 | 96 | 346 | 4.0 | 6.0 | 0.00 | 0.31 | 0.00 | 51 | 1009.2 |
| 20260906202601 | 97 | 323 | 3.0 | 6.0 | 0.00 | 0.31 | 0.00 | 51 | 1009.3 |
| 20260906202503 | 97 | 326 | 3.0 | 6.0 | 0.00 | 0.31 | 0.00 | 54 | 1009.3 |
| 20260906202402 | 96 | 324 | 4.0 | 6.0 | 0.00 | 0.31 | 0.00 | 52 | 1009.3 |
| 20260906202306 | 96 | 322 | 1.0 | 6.0 | 0.00 | 0.31 | 0.00 | 53 | 1009.3 |
| 20260906202201 | 96 | 15 | 3.0 | 6.0 | 0.00 | 0.31 | 0.00 | 53 | 1009.3 |
| 20260906202102 | 96 | 340 | 4.0 | 6.0 | 0.00 | 0.31 | 0.00 | 54 | 1009.3 |
| 20260906202004 | 96 | 347 | 4.0 | 6.0 | 0.00 | 0.31 | 0.00 | 52 | 1009.4 |
| 20260906201901 | 96 | 26 | 2.0 | 6.0 | 0.00 | 0.31 | 0.00 | 53 | 1009.4 |
| 20260906201801 | 96 | 341 | 3.0 | 6.0 | 0.00 | 0.31 | 0.00 | 52 | 1009.5 |
| 20260906201702 | 96 | 30 | 2.0 | 6.0 | 0.00 | 0.31 | 0.00 | 52 | 1009.5 |
| 20260906201601 | 96 | 337 | 2.0 | 6.0 | 0.00 | 0.31 | 0.00 | 52 | 1009.4 |
| 20260906201503 | 96 | 359 | 3.0 | 6.0 | 0.00 | 0.31 | 0.00 | 53 | 1009.4 |
| 20260906201401 | 96 | 360 | 3.0 | 7.0 | 0.00 | 0.31 | 0.00 | 52 | 1009.5 |
| 20260906201301 | 96 | 343 | 3.0 | 7.0 | 0.00 | 0.31 | 0.00 | 53 | 1009.5 |
| 20260906201202 | 96 | 328 | 2.0 | 7.0 | 0.00 | 0.31 | 0.00 | 55 | 1009.5 |
| 20260906201102 | 96 | 15 | 5.0 | 7.0 | 0.00 | 0.31 | 0.00 | 53 | 1009.5 |
| 20260906201005 | 96 | 326 | 5.0 | 7.0 | 0.00 | 0.31 | 0.00 | 53 | 1009.6 |
| 20260906200902 | 96 | 348 | 4.0 | 7.0 | 0.00 | 0.31 | 0.00 | 53 | 1009.6 |
| 20260906200801 | 96 | 338 | 2.0 | 7.0 | 0.00 | 0.31 | 0.00 | 53 | 1009.7 |
| 20260906200601 | 96 | 319 | 4.0 | 7.0 | 0.00 | 0.31 | 0.00 | 52 | 1009.7 |
| 20260906200401 | 96 | 359 | 3.0 | 7.0 | 0.00 | 0.31 | 0.00 | 54 | 1009.8 |
| 20260906200301 | 96 | 356 | 4.0 | 7.0 | 0.00 | 0.31 | 0.00 | 53 | 1009.8 |
| 20260906200201 | 96 | 323 | 2.0 | 7.0 | 0.00 | 0.31 | 0.00 | 54 | 1009.8 |
| 20260906200004 | 96 | 6 | 4.0 | 8.0 | 0.00 | 0.65 | 0.00 | 53 | 1009.8 |
| 20260906195902 | 96 | 341 | 3.0 | 8.0 | 0.00 | 0.65 | 0.00 | 54 | 1009.8 |
| 20260906195801 | 96 | 311 | 3.0 | 8.0 | 0.00 | 0.65 | 0.00 | 53 | 1009.8 |
| 20260906195701 | 96 | 360 | 7.0 | 8.0 | 0.00 | 0.65 | 0.00 | 53 | 1009.9 |
| 20260906195602 | 96 | 324 | 4.0 | 8.0 | 0.00 | 0.65 | 0.00 | 53 | 1009.9 |
| 20260906195503 | 96 | 329 | 4.0 | 8.0 | 0.00 | 0.65 | 0.00 | 54 | 1009.9 |
| 20260906195401 | 96 | 318 | 3.0 | 8.0 | 0.00 | 0.65 | 0.00 | 52 | 1010.0 |
| 20260906195301 | 96 | 335 | 4.0 | 8.0 | 0.00 | 0.65 | 0.00 | 52 | 1009.9 |
| 20260906195201 | 96 | 348 | 5.0 | 8.0 | 0.00 | 0.65 | 0.00 | 52 | 1010.0 |
| 20260906195102 | 96 | 348 | 3.0 | 7.0 | 0.00 | 0.65 | 0.00 | 54 | 1010.0 |
| 20260906194902 | 96 | 354 | 3.0 | 8.0 | 0.00 | 0.65 | 0.00 | 53 | 1009.9 |
| 20260906194801 | 96 | 8 | 3.0 | 8.0 | 0.00 | 0.65 | 0.00 | 53 | 1010.0 |
| 20260906194701 | 96 | 313 | 3.0 | 8.0 | 0.00 | 0.65 | 0.00 | 53 | 1010.1 |
| 20260906194601 | 96 | 1 | 3.0 | 8.0 | 0.00 | 0.65 | 0.00 | 54 | 1010.0 |
| 20260906194504 | 96 | 336 | 3.0 | 8.0 | 0.00 | 0.65 | 0.00 | 54 | 1010.1 |
| 20260906194401 | 96 | 13 | 7.0 | 8.0 | 0.00 | 0.65 | 0.00 | 53 | 1010.1 |
| 20260906194301 | 96 | 352 | 6.0 | 9.0 | 0.00 | 0.65 | 0.00 | 52 | 1010.2 |
| 20260906194201 | 96 | 34 | 3.0 | 9.0 | 0.00 | 0.65 | 0.00 | 53 | 1010.3 |
| 20260906194101 | 96 | 339 | 3.0 | 9.0 | 0.00 | 0.65 | 0.00 | 53 | 1010.2 |
| 20260906194004 | 96 | 359 | 4.0 | 9.0 | 0.00 | 0.65 | 0.00 | 53 | 1010.2 |
| 20260906193802 | 96 | 343 | 2.0 | 9.0 | 0.00 | 0.65 | 0.00 | 54 | 1010.2 |
| 20260906193503 | 96 | 75 | 3.0 | 9.0 | 0.00 | 0.65 | 0.00 | 54 | 1010.2 |
| 20260906193401 | 97 | 13 | 8.0 | 9.0 | 0.00 | 0.65 | 0.00 | 55 | 1010.2 |
| 20260906193201 | 96 | 20 | 2.0 | 9.0 | 0.00 | 0.65 | 0.00 | 56 | 1010.3 |
| 20260906193101 | 95 | 1 | 4.0 | 9.0 | 0.00 | 0.65 | 0.00 | 55 | 1010.3 |
| 20260906193004 | 95 | 46 | 3.0 | 9.0 | 0.00 | 0.65 | 0.00 | 55 | 1010.3 |
| 20260906192901 | 95 | 340 | 4.0 | 9.0 | 0.00 | 0.65 | 0.00 | 54 | 1010.4 |
| 20260906192801 | 96 | 292 | 5.0 | 8.0 | 0.00 | 0.65 | 0.00 | 53 | 1010.3 |
| 20260906192701 | 96 | 11 | 4.0 | 8.0 | 0.00 | 0.65 | 0.00 | 54 | 1010.3 |
| 20260906192601 | 96 | 331 | 3.0 | 8.0 | 0.00 | 0.65 | 0.00 | 54 | 1010.3 |
| 20260906192503 | 96 | 338 | 4.0 | 8.0 | 0.00 | 0.65 | 0.00 | 55 | 1010.3 |
| 20260906192402 | 96 | 4 | 7.0 | 8.0 | 0.00 | 0.65 | 0.00 | 54 | 1010.3 |
| 20260906192301 | 95 | 20 | 1.0 | 7.0 | 0.00 | 0.65 | 0.00 | 55 | 1010.3 |
| 20260906192101 | 95 | 305 | 2.0 | 7.0 | 0.00 | 0.65 | 0.00 | 55 | 1010.4 |
| 20260906191902 | 95 | 334 | 3.0 | 7.0 | 0.00 | 0.65 | 0.00 | 55 | 1010.4 |
| 20260906191802 | 95 | 336 | 5.0 | 7.0 | 0.00 | 0.65 | 0.00 | 55 | 1010.5 |
| 20260906191701 | 95 | 337 | 5.0 | 7.0 | 0.00 | 0.65 | 0.00 | 55 | 1010.5 |
| 20260906191602 | 95 | 359 | 3.0 | 7.0 | 0.00 | 0.65 | 0.00 | 54 | 1010.5 |
| 20260906191503 | 95 | 337 | 4.0 | 7.0 | 0.00 | 0.65 | 0.00 | 55 | 1010.5 |
| 20260906191302 | 95 | 335 | 4.0 | 7.0 | 0.00 | 0.65 | 0.00 | 55 | 1010.6 |
| 20260906191201 | 95 | 8 | 3.0 | 7.0 | 0.00 | 0.65 | 0.00 | 56 | 1010.6 |
| 20260906191101 | 94 | 355 | 4.0 | 7.0 | 0.00 | 0.65 | 0.00 | 56 | 1010.6 |
| 20260906191004 | 94 | 333 | 4.0 | 7.0 | 0.00 | 0.65 | 0.00 | 57 | 1010.7 |
| 20260906190902 | 94 | 359 | 6.0 | 7.0 | 0.00 | 0.65 | 0.00 | 56 | 1010.7 |
| 20260906190802 | 93 | 327 | 5.0 | 7.0 | 0.00 | 0.65 | 0.00 | 56 | 1010.7 |
| 20260906190701 | 93 | 350 | 5.0 | 7.0 | 0.00 | 0.65 | 0.00 | 56 | 1010.7 |
| 20260906190504 | 93 | 327 | 4.0 | 7.0 | 0.00 | 0.65 | 0.00 | 56 | 1010.8 |
| 20260906190403 | 93 | 1 | 5.0 | 7.0 | 0.00 | 0.65 | 0.00 | 57 | 1010.8 |
| 20260906190302 | 93 | 1 | 3.0 | 7.0 | 0.00 | 0.65 | 0.00 | 56 | 1010.8 |
| 20260906190201 | 93 | 23 | 4.0 | 7.0 | 0.00 | 0.65 | 0.00 | 57 | 1010.9 |
| 20260906185902 | 93 | 332 | 4.0 | 7.0 | 0.00 | 0.65 | 0.00 | 56 | 1010.9 |
| 20260906185802 | 93 | 338 | 4.0 | 7.0 | 0.00 | 0.65 | 0.00 | 55 | 1010.9 |
| 20260906185701 | 94 | 331 | 5.0 | 7.0 | 0.00 | 0.65 | 0.00 | 54 | 1010.9 |
| 20260906185602 | 95 | 322 | 5.0 | 7.0 | 0.00 | 0.65 | 0.00 | 54 | 1011.0 |
| 20260906185504 | 95 | 312 | 5.0 | 7.0 | 0.00 | 0.65 | 0.00 | 54 | 1011.0 |
| 20260906185401 | 96 | 6 | 5.0 | 7.0 | 0.00 | 0.65 | 0.00 | 55 | 1011.1 |
| 20260906185202 | 95 | 353 | 3.0 | 7.0 | 0.00 | 0.65 | 0.00 | 55 | 1011.0 |
| 20260906185101 | 94 | 349 | 5.0 | 7.0 | 0.00 | 0.65 | 0.00 | 57 | 1011.0 |
| 20260906185005 | 94 | 355 | 5.0 | 6.0 | 0.00 | 0.65 | 0.00 | 56 | 1011.1 |
| 20260906184801 | 93 | 345 | 4.0 | 8.0 | 0.00 | 0.65 | 0.00 | 57 | 1011.0 |
| 20260906184701 | 93 | 340 | 5.0 | 8.0 | 0.00 | 0.65 | 0.00 | 57 | 1011.0 |
| 20260906184602 | 93 | 336 | 4.0 | 8.0 | 0.00 | 0.65 | 0.00 | 56 | 1011.0 |
| 20260906184504 | 93 | 301 | 2.0 | 8.0 | 0.00 | 0.65 | 0.00 | 56 | 1011.1 |
| 20260906184401 | 93 | 336 | 4.0 | 8.0 | 0.00 | 0.65 | 0.00 | 56 | 1011.2 |
| 20260906184301 | 94 | 301 | 2.0 | 8.0 | 0.00 | 0.65 | 0.00 | 57 | 1011.2 |
| 20260906184200 | 94 | 335 | 3.0 | 8.0 | 0.00 | 0.65 | 0.00 | 57 | 1011.2 |
| 20260906184102 | 94 | 317 | 3.0 | 8.0 | 0.00 | 0.65 | 0.00 | 55 | 1011.1 |
| 20260906184007 | 94 | 5 | 6.0 | 8.0 | 0.00 | 0.65 | 0.00 | 56 | 1011.1 |
| 20260906183901 | 94 | 326 | 3.0 | 7.0 | 0.00 | 0.65 | 0.00 | 57 | 1011.2 |
| 20260906183801 | 94 | 356 | 3.0 | 7.0 | 0.00 | 0.65 | 0.00 | 56 | 1011.1 |
| 20260906183700 | 94 | 357 | 5.0 | 7.0 | 0.00 | 0.65 | 0.00 | 56 | 1011.2 |
| 20260906183503 | 95 | 340 | 6.0 | 9.0 | 0.00 | 0.65 | 0.00 | 54 | 1011.3 |
| 20260906183402 | 95 | 99 | 0.0 | 9.0 | 0.00 | 0.65 | 0.00 | 56 | 1011.3 |
| 20260906183301 | 95 | 6 | 7.0 | 9.0 | 0.00 | 0.65 | 0.00 | 55 | 1011.3 |
| 20260906183202 | 95 | 346 | 5.0 | 9.0 | 0.00 | 0.65 | 0.00 | 55 | 1011.3 |
| 20260906183102 | 95 | 44 | 2.0 | 9.0 | 0.00 | 0.65 | 0.00 | 55 | 1011.4 |
| 20260906183004 | 95 | 10 | 7.0 | 9.0 | 0.00 | 0.65 | 0.00 | 56 | 1011.3 |
| 20260906182901 | 95 | 77 | 5.0 | 9.0 | 0.00 | 0.65 | 0.00 | 57 | 1011.3 |
| 20260906182801 | 95 | 340 | 4.0 | 9.0 | 0.00 | 0.65 | 0.00 | 55 | 1011.3 |
| 20260906182701 | 95 | 333 | 2.0 | 9.0 | 0.00 | 0.65 | 0.00 | 57 | 1011.3 |
| 20260906182504 | 95 | 353 | 4.0 | 6.0 | 0.00 | 0.65 | 0.00 | 58 | 1011.3 |
| 20260906182401 | 94 | 340 | 4.0 | 7.0 | 0.00 | 0.65 | 0.00 | 56 | 1011.4 |
| 20260906182201 | 95 | 337 | 5.0 | 7.0 | 0.00 | 0.65 | 0.00 | 58 | 1011.4 |
| 20260906182101 | 95 | 340 | 4.0 | 7.0 | 0.00 | 0.65 | 0.00 | 57 | 1011.4 |
| 20260906182008 | 95 | 324 | 3.0 | 7.0 | 0.00 | 0.65 | 0.00 | 57 | 1011.4 |
| 20260906181901 | 95 | 332 | 4.0 | 7.0 | 0.00 | 0.65 | 0.00 | 58 | 1011.4 |
| 20260906181801 | 94 | 5 | 5.0 | 7.0 | 0.00 | 0.65 | 0.00 | 57 | 1011.4 |
| 20260906181701 | 94 | 360 | 4.0 | 7.0 | 0.00 | 0.65 | 0.00 | 58 | 1011.4 |
| 20260906181601 | 93 | 4 | 3.0 | 7.0 | 0.00 | 0.65 | 0.00 | 58 | 1011.5 |
| 20260906181401 | 93 | 332 | 5.0 | 7.0 | 0.00 | 0.65 | 0.00 | 57 | 1011.6 |
| 20260906181301 | 94 | 326 | 5.0 | 7.0 | 0.00 | 0.65 | 0.00 | 56 | 1011.5 |
| 20260906181201 | 95 | 8 | 3.0 | 7.0 | 0.00 | 0.65 | 0.00 | 55 | 1011.6 |
| 20260906181101 | 95 | 346 | 4.0 | 7.0 | 0.00 | 0.65 | 0.00 | 56 | 1011.7 |
| 20260906181005 | 95 | 331 | 3.0 | 7.0 | 0.00 | 0.65 | 0.00 | 56 | 1011.6 |
| 20260906180802 | 94 | 10 | 2.0 | 7.0 | 0.00 | 0.65 | 0.00 | 57 | 1011.7 |
| 20260906180503 | 93 | 340 | 5.0 | 7.0 | 0.00 | 0.65 | 0.00 | 57 | 1011.7 |
| 20260906180401 | 94 | 324 | 7.0 | 7.0 | 0.00 | 0.65 | 0.00 | 57 | 1011.7 |
| 20260906180301 | 94 | 333 | 6.0 | 7.0 | 0.00 | 0.65 | 0.00 | 57 | 1011.8 |
| 20260906180200 | 94 | 350 | 5.0 | 7.0 | 0.00 | 0.65 | 0.00 | 58 | 1011.8 |
| 20260906180100 | 94 | 340 | 3.0 | 7.0 | 0.00 | 0.65 | 0.00 | 56 | 1011.7 |
| 20260906180004 | 94 | 24 | 6.0 | 7.0 | 0.00 | 0.65 | 0.00 | 56 | 1011.7 |
| 20260906175901 | 95 | 338 | 7.0 | 7.0 | 0.00 | 0.65 | 0.00 | 56 | 1011.7 |
| 20260906175759 | 95 | 323 | 3.0 | 7.0 | 0.00 | 0.65 | 0.00 | 55 | 1011.8 |
| 20260906175700 | 95 | 360 | 3.0 | 7.0 | 0.00 | 0.65 | 0.00 | 56 | 1011.8 |
| 20260906175600 | 95 | 354 | 3.0 | 7.0 | 0.00 | 0.65 | 0.00 | 56 | 1011.8 |
| 20260906175502 | 94 | 327 | 3.0 | 7.0 | 0.00 | 0.65 | 0.00 | 55 | 1011.9 |
| 20260906175359 | 95 | 359 | 4.0 | 7.0 | 0.00 | 0.65 | 0.00 | 56 | 1011.9 |
| 20260906175259 | 95 | 341 | 3.0 | 8.0 | 0.00 | 0.65 | 0.00 | 57 | 1011.9 |
| 20260906175200 | 94 | 321 | 3.0 | 8.0 | 0.00 | 0.65 | 0.00 | 57 | 1011.9 |
| 20260906174800 | 95 | 314 | 3.0 | 8.0 | 0.00 | 0.65 | 0.00 | 57 | 1012.0 |
| 20260906174700 | 95 | 320 | 4.0 | 8.0 | 0.00 | 0.65 | 0.00 | 58 | 1011.9 |
| 20260906174600 | 94 | 319 | 3.0 | 8.0 | 0.00 | 0.65 | 0.00 | 57 | 1011.9 |
| 20260906174503 | 94 | 340 | 4.0 | 8.0 | 0.00 | 0.65 | 0.00 | 57 | 1011.9 |
| 20260906174400 | 94 | 4 | 8.0 | 8.0 | 0.00 | 0.65 | 0.00 | 57 | 1011.9 |
| 20260906174300 | 94 | 333 | 4.0 | 7.0 | 0.00 | 0.65 | 0.00 | 57 | 1011.9 |
| 20260906174200 | 94 | 325 | 4.0 | 7.0 | 0.00 | 0.65 | 0.00 | 56 | 1011.9 |
| 20260906174101 | 94 | 331 | 4.0 | 7.0 | 0.00 | 0.65 | 0.00 | 57 | 1011.9 |
| 20260906174003 | 94 | 336 | 6.0 | 6.0 | 0.00 | 0.65 | 0.00 | 56 | 1011.8 |
| 20260906173900 | 94 | 11 | 5.0 | 6.0 | 0.00 | 0.65 | 0.00 | 56 | 1011.9 |
| 20260906173800 | 94 | 335 | 4.0 | 6.0 | 0.00 | 0.65 | 0.00 | 56 | 1011.8 |
| 20260906173701 | 94 | 360 | 4.0 | 6.0 | 0.00 | 0.65 | 0.00 | 57 | 1011.9 |
| 20260906173559 | 94 | 320 | 3.0 | 6.0 | 0.00 | 0.65 | 0.00 | 56 | 1011.9 |
| 20260906173504 | 94 | 6 | 1.0 | 6.0 | 0.00 | 0.65 | 0.00 | 56 | 1011.9 |
| 20260906173359 | 94 | 11 | 2.0 | 6.0 | 0.00 | 0.65 | 0.00 | 57 | 1011.9 |
| 20260906173200 | 94 | 25 | 2.0 | 7.0 | 0.00 | 0.65 | 0.00 | 56 | 1012.1 |
| 20260906173101 | 94 | 357 | 2.0 | 7.0 | 0.00 | 0.65 | 0.00 | 57 | 1012.1 |
| 20260906172901 | 94 | 70 | 2.0 | 7.0 | 0.00 | 0.65 | 0.00 | 56 | 1012.1 |
| 20260906172800 | 94 | 88 | 2.0 | 7.0 | 0.00 | 0.65 | 0.00 | 58 | 1012.1 |
| 20260906172701 | 94 | 316 | 3.0 | 7.0 | 0.00 | 0.65 | 0.00 | 58 | 1012.1 |
| 20260906172600 | 94 | 101 | 3.0 | 7.0 | 0.00 | 0.65 | 0.00 | 58 | 1012.2 |
| 20260906172503 | 94 | 349 | 5.0 | 7.0 | 0.00 | 0.65 | 0.00 | 57 | 1012.2 |
| 20260906172400 | 94 | 356 | 4.0 | 7.0 | 0.00 | 0.65 | 0.00 | 56 | 1012.2 |
| 20260906172300 | 94 | 8 | 3.0 | 6.0 | 0.00 | 0.65 | 0.00 | 55 | 1012.3 |
| 20260906172201 | 94 | 34 | 2.0 | 6.0 | 0.00 | 0.65 | 0.00 | 57 | 1012.2 |
| 20260906172100 | 94 | 18 | 0.0 | 5.0 | 0.00 | 0.65 | 0.00 | 57 | 1012.2 |
| 20260906172003 | 94 | 347 | 3.0 | 5.0 | 0.00 | 0.65 | 0.00 | 56 | 1012.3 |
| 20260906171900 | 94 | 25 | 3.0 | 5.0 | 0.00 | 0.65 | 0.00 | 56 | 1012.2 |
| 20260906171800 | 94 | 12 | 3.0 | 5.0 | 0.00 | 0.65 | 0.00 | 57 | 1012.3 |
| 20260906171659 | 94 | 11 | 0.0 | 5.0 | 0.00 | 0.65 | 0.00 | 57 | 1012.2 |
| 20260906171600 | 94 | 8 | 2.0 | 5.0 | 0.00 | 0.65 | 0.00 | 58 | 1012.3 |
| 20260906171503 | 93 | 36 | 1.0 | 5.0 | 0.00 | 0.65 | 0.00 | 59 | 1012.2 |
| 20260906171400 | 93 | 1 | 1.0 | 5.0 | 0.00 | 0.65 | 0.00 | 60 | 1012.3 |
| 20260906171259 | 92 | 33 | 0.0 | 5.0 | 0.00 | 0.65 | 0.00 | 60 | 1012.2 |
| 20260906171201 | 92 | 24 | 4.0 | 5.0 | 0.00 | 0.65 | 0.00 | 60 | 1012.2 |
| 20260906171100 | 92 | 349 | 4.0 | 5.0 | 0.00 | 0.65 | 0.00 | 61 | 1012.2 |
| 20260906170900 | 92 | 268 | 1.0 | 7.0 | 0.00 | 0.65 | 0.00 | 60 | 1012.2 |
| 20260906170801 | 92 | 311 | 3.0 | 7.0 | 0.00 | 0.65 | 0.00 | 60 | 1012.3 |
| 20260906170701 | 92 | 341 | 2.0 | 7.0 | 0.00 | 0.65 | 0.00 | 59 | 1012.3 |
| 20260906170600 | 92 | 316 | 1.0 | 7.0 | 0.00 | 0.65 | 0.00 | 60 | 1012.3 |
| 20260906170503 | 92 | 328 | 4.0 | 7.0 | 0.00 | 0.65 | 0.00 | 62 | 1012.3 |
| 20260906170400 | 92 | 314 | 3.0 | 7.0 | 0.00 | 0.65 | 0.00 | 60 | 1012.3 |
| 20260906170300 | 92 | 334 | 3.0 | 7.0 | 0.00 | 0.65 | 0.00 | 61 | 1012.3 |
| 20260906170201 | 93 | 309 | 2.0 | 7.0 | 0.00 | 0.65 | 0.00 | 60 | 1012.3 |
| 20260906170003 | 93 | 323 | 4.0 | 7.0 | 0.00 | 0.65 | 0.00 | 62 | 1012.3 |
| 20260906165902 | 92 | 333 | 4.0 | 7.0 | 0.00 | 0.65 | 0.00 | 62 | 1012.3 |
| 20260906165800 | 92 | 336 | 5.0 | 7.0 | 0.00 | 0.65 | 0.00 | 62 | 1012.3 |
| 20260906165700 | 92 | 337 | 5.0 | 7.0 | 0.00 | 0.65 | 0.00 | 61 | 1012.3 |
| 20260906165559 | 92 | 328 | 4.0 | 7.0 | 0.00 | 0.65 | 0.00 | 60 | 1012.3 |
| 20260906165502 | 91 | 360 | 3.0 | 8.0 | 0.00 | 0.65 | 0.00 | 63 | 1012.4 |
| 20260906165259 | 90 | 338 | 4.0 | 10.0 | 0.00 | 0.65 | 0.00 | 62 | 1012.5 |
| 20260906165200 | 90 | 356 | 6.0 | 10.0 | 0.00 | 0.65 | 0.00 | 62 | 1012.4 |
| 20260906165101 | 90 | 351 | 6.0 | 10.0 | 0.00 | 0.65 | 0.00 | 62 | 1012.5 |
| 20260906165003 | 90 | 332 | 4.0 | 10.0 | 0.00 | 0.65 | 0.00 | 63 | 1012.6 |
| 20260906164859 | 90 | 335 | 3.0 | 10.0 | 0.00 | 0.65 | 0.00 | 64 | 1012.6 |
| 20260906164701 | 90 | 343 | 5.0 | 10.0 | 0.00 | 0.65 | 0.00 | 63 | 1012.7 |
| 20260906164601 | 90 | 338 | 6.0 | 10.0 | 0.00 | 0.65 | 0.00 | 63 | 1012.7 |
| 20260906164502 | 91 | 344 | 6.0 | 7.0 | 0.00 | 0.65 | 0.00 | 63 | 1012.8 |
| 20260906164400 | 91 | 330 | 2.0 | 7.0 | 0.00 | 0.65 | 0.00 | 62 | 1012.7 |
| 20260906164259 | 92 | 314 | 5.0 | 8.0 | 0.00 | 0.65 | 0.00 | 61 | 1012.8 |
| 20260906164159 | 92 | 303 | 4.0 | 8.0 | 0.00 | 0.65 | 0.00 | 62 | 1012.8 |
| 20260906164004 | 91 | 312 | 3.0 | 8.0 | 0.00 | 0.65 | 0.00 | 63 | 1012.7 |
| 20260906163859 | 90 | 354 | 5.0 | 8.0 | 0.00 | 0.65 | 0.00 | 63 | 1012.7 |
| 20260906163800 | 90 | 339 | 5.0 | 8.0 | 0.00 | 0.65 | 0.00 | 62 | 1012.7 |
| 20260906163659 | 90 | 339 | 4.0 | 8.0 | 0.00 | 0.65 | 0.00 | 62 | 1012.7 |
| 20260906163600 | 90 | 6 | 6.0 | 8.0 | 0.00 | 0.65 | 0.00 | 63 | 1012.7 |
| 20260906163503 | 90 | 347 | 7.0 | 8.0 | 0.00 | 0.65 | 0.00 | 63 | 1012.7 |
| 20260906163400 | 90 | 344 | 6.0 | 6.0 | 0.00 | 0.65 | 0.00 | 64 | 1012.7 |
| 20260906163201 | 90 | 321 | 4.0 | 6.0 | 0.00 | 0.65 | 0.00 | 64 | 1012.8 |
| 20260906163100 | 90 | 338 | 4.0 | 6.0 | 0.00 | 0.65 | 0.00 | 65 | 1012.8 |
| 20260906163003 | 90 | 326 | 5.0 | 6.0 | 0.00 | 0.65 | 0.00 | 66 | 1012.8 |
| 20260906162900 | 89 | 324 | 3.0 | 6.0 | 0.00 | 0.65 | 0.00 | 68 | 1012.9 |
| 20260906162700 | 89 | 311 | 3.0 | 6.0 | 0.00 | 0.65 | 0.00 | 67 | 1012.8 |
| 20260906162503 | 89 | 335 | 3.0 | 8.0 | 0.00 | 0.65 | 0.00 | 66 | 1012.8 |
| 20260906162300 | 89 | 323 | 4.0 | 8.0 | 0.00 | 0.65 | 0.00 | 66 | 1012.9 |
| 20260906162201 | 89 | 328 | 5.0 | 8.0 | 0.00 | 0.65 | 0.00 | 66 | 1012.8 |
| 20260906162059 | 89 | 306 | 2.0 | 8.0 | 0.00 | 0.65 | 0.00 | 66 | 1012.9 |
| 20260906162003 | 89 | 325 | 5.0 | 8.0 | 0.00 | 0.65 | 0.00 | 66 | 1012.9 |
| 20260906161759 | 89 | 324 | 5.0 | 8.0 | 0.00 | 0.65 | 0.00 | 64 | 1012.9 |
| 20260906161700 | 89 | 343 | 7.0 | 8.0 | 0.00 | 0.65 | 0.00 | 64 | 1012.9 |
| 20260906161600 | 89 | 356 | 6.0 | 7.0 | 0.00 | 0.65 | 0.00 | 66 | 1012.8 |
| 20260906161502 | 89 | 358 | 7.0 | 7.0 | 0.00 | 0.65 | 0.00 | 68 | 1012.9 |
| 20260906161400 | 89 | 327 | 3.0 | 7.0 | 0.00 | 0.65 | 0.00 | 67 | 1013.0 |
| 20260906161301 | 88 | 354 | 6.0 | 6.0 | 0.00 | 0.65 | 0.00 | 68 | 1012.9 |
| 20260906161200 | 88 | 331 | 2.0 | 5.0 | 0.00 | 0.65 | 0.00 | 69 | 1013.0 |
| 20260906161100 | 88 | 340 | 3.0 | 5.0 | 0.00 | 0.65 | 0.00 | 70 | 1013.0 |
| 20260906161002 | 88 | 314 | 4.0 | 5.0 | 0.00 | 0.65 | 0.00 | 69 | 1013.0 |
| 20260906160759 | 88 | 339 | 4.0 | 6.0 | 0.00 | 0.65 | 0.00 | 69 | 1013.1 |
| 20260906160701 | 88 | 319 | 5.0 | 6.0 | 0.00 | 0.65 | 0.00 | 69 | 1013.1 |
| 20260906160559 | 88 | 320 | 5.0 | 6.0 | 0.00 | 0.65 | 0.00 | 69 | 1013.1 |
| 20260906160504 | 88 | 307 | 3.0 | 7.0 | 0.00 | 0.65 | 0.00 | 69 | 1013.1 |
| 20260906160401 | 88 | 342 | 3.0 | 7.0 | 0.00 | 0.65 | 0.00 | 69 | 1013.1 |
| 20260906160159 | 88 | 30 | 3.0 | 7.0 | 0.00 | 0.65 | 0.00 | 69 | 1013.1 |
| 20260906160100 | 87 | 345 | 1.0 | 7.0 | 0.00 | 0.65 | 0.00 | 69 | 1013.0 |
| 20260906160007 | 87 | 358 | 6.0 | 7.0 | 0.00 | 0.65 | 0.00 | 70 | 1013.0 |
| 20260906155901 | 87 | 325 | 4.0 | 7.0 | 0.00 | 0.65 | 0.00 | 70 | 1013.1 |
| 20260906155801 | 87 | 337 | 5.0 | 7.0 | 0.00 | 0.65 | 0.00 | 70 | 1013.1 |
| 20260906155701 | 87 | 322 | 5.0 | 7.0 | 0.00 | 0.65 | 0.00 | 70 | 1013.1 |
| 20260906155601 | 87 | 328 | 5.0 | 6.0 | 0.00 | 0.65 | 0.00 | 70 | 1013.2 |
| 20260906155503 | 87 | 332 | 4.0 | 6.0 | 0.00 | 0.65 | 0.00 | 69 | 1013.2 |
| 20260906155401 | 87 | 319 | 3.0 | 6.0 | 0.00 | 0.65 | 0.00 | 68 | 1013.1 |
| 20260906155300 | 88 | 284 | 3.0 | 6.0 | 0.00 | 0.65 | 0.00 | 69 | 1013.2 |
| 20260906155201 | 88 | 293 | 5.0 | 6.0 | 0.00 | 0.65 | 0.00 | 69 | 1013.2 |
| 20260906155101 | 88 | 325 | 4.0 | 7.0 | 0.00 | 0.65 | 0.00 | 69 | 1013.2 |
| 20260906155004 | 88 | 343 | 4.0 | 7.0 | 0.00 | 0.65 | 0.00 | 71 | 1013.2 |
| 20260906154901 | 88 | 333 | 4.0 | 7.0 | 0.00 | 0.65 | 0.00 | 70 | 1013.2 |
| 20260906154800 | 88 | 337 | 5.0 | 7.0 | 0.00 | 0.65 | 0.00 | 70 | 1013.2 |
| 20260906154700 | 88 | 353 | 5.0 | 7.0 | 0.00 | 0.65 | 0.00 | 70 | 1013.2 |
| 20260906154602 | 88 | 354 | 4.0 | 7.0 | 0.00 | 0.65 | 0.00 | 70 | 1013.1 |
| 20260906154504 | 88 | 356 | 4.0 | 7.0 | 0.00 | 0.65 | 0.00 | 70 | 1013.2 |
| 20260906154401 | 87 | 345 | 5.0 | 7.0 | 0.00 | 0.65 | 0.00 | 70 | 1013.2 |
| 20260906154300 | 87 | 349 | 5.0 | 7.0 | 0.00 | 0.65 | 0.00 | 69 | 1013.2 |
| 20260906154201 | 87 | 350 | 5.0 | 7.0 | 0.00 | 0.65 | 0.00 | 70 | 1013.1 |
| 20260906154102 | 87 | 346 | 6.0 | 7.0 | 0.00 | 0.65 | 0.00 | 72 | 1013.2 |
| 20260906154005 | 87 | 339 | 6.0 | 7.0 | 0.00 | 0.65 | 0.00 | 72 | 1013.2 |
| 20260906153901 | 87 | 341 | 6.0 | 7.0 | 0.00 | 0.65 | 0.00 | 72 | 1013.2 |
| 20260906153801 | 86 | 328 | 4.0 | 7.0 | 0.00 | 0.65 | 0.00 | 72 | 1013.2 |
| 20260906153701 | 86 | 330 | 4.0 | 7.0 | 0.00 | 0.65 | 0.00 | 72 | 1013.2 |
| 20260906153602 | 86 | 336 | 5.0 | 7.0 | 0.00 | 0.65 | 0.00 | 72 | 1013.2 |
| 20260906153503 | 86 | 1 | 6.0 | 7.0 | 0.00 | 0.65 | 0.00 | 73 | 1013.3 |
| 20260906153401 | 85 | 346 | 2.0 | 6.0 | 0.00 | 0.65 | 0.00 | 74 | 1013.3 |
| 20260906153301 | 85 | 331 | 4.0 | 7.0 | 0.00 | 0.65 | 0.00 | 74 | 1013.3 |
| 20260906153202 | 85 | 327 | 3.0 | 7.0 | 0.00 | 0.65 | 0.00 | 74 | 1013.3 |
| 20260906153101 | 85 | 293 | 3.0 | 7.0 | 0.00 | 0.65 | 0.00 | 74 | 1013.3 |
| 20260906153005 | 85 | 310 | 3.0 | 8.0 | 0.00 | 0.65 | 0.00 | 74 | 1013.2 |
| 20260906152801 | 86 | 347 | 5.0 | 8.0 | 0.00 | 0.65 | 0.00 | 74 | 1013.2 |
| 20260906152701 | 86 | 334 | 5.0 | 8.0 | 0.00 | 0.65 | 0.00 | 74 | 1013.2 |
| 20260906152503 | 86 | 306 | 3.0 | 8.0 | 0.00 | 0.65 | 0.00 | 74 | 1013.2 |
| 20260906152301 | 86 | 318 | 4.0 | 8.0 | 0.00 | 0.65 | 0.00 | 75 | 1013.1 |
| 20260906152200 | 86 | 331 | 4.0 | 8.0 | 0.00 | 0.65 | 0.00 | 75 | 1013.2 |
| 20260906152101 | 86 | 345 | 7.0 | 7.0 | 0.00 | 0.65 | 0.00 | 76 | 1013.2 |
| 20260906152005 | 86 | 328 | 4.0 | 6.0 | 0.00 | 0.65 | 0.00 | 76 | 1013.2 |
| 20260906151900 | 86 | 309 | 3.0 | 6.0 | 0.00 | 0.65 | 0.00 | 76 | 1013.1 |
| 20260906151800 | 86 | 324 | 4.0 | 6.0 | 0.00 | 0.65 | 0.00 | 76 | 1013.2 |
| 20260906151602 | 86 | 307 | 3.0 | 6.0 | 0.00 | 0.65 | 0.00 | 76 | 1013.1 |
| 20260906151504 | 86 | 309 | 4.0 | 6.0 | 0.00 | 0.65 | 0.00 | 76 | 1013.2 |
| 20260906151401 | 86 | 336 | 3.0 | 6.0 | 0.00 | 0.65 | 0.00 | 77 | 1013.2 |
| 20260906151301 | 86 | 334 | 4.0 | 6.0 | 0.00 | 0.65 | 0.00 | 77 | 1013.2 |
| 20260906151101 | 86 | 317 | 4.0 | 5.0 | 0.00 | 0.65 | 0.00 | 77 | 1013.2 |
| 20260906151005 | 86 | 333 | 4.0 | 5.0 | 0.00 | 0.65 | 0.00 | 78 | 1013.3 |
| 20260906150901 | 85 | 326 | 3.0 | 5.0 | 0.00 | 0.65 | 0.00 | 78 | 1013.3 |
| 20260906150801 | 85 | 360 | 4.0 | 5.0 | 0.00 | 0.65 | 0.00 | 78 | 1013.2 |
| 20260906150702 | 85 | 333 | 4.0 | 5.0 | 0.00 | 0.65 | 0.00 | 79 | 1013.2 |
| 20260906150601 | 85 | 311 | 4.0 | 5.0 | 0.00 | 0.65 | 0.00 | 79 | 1013.2 |
| 20260906150503 | 85 | 324 | 2.0 | 5.0 | 0.00 | 0.65 | 0.00 | 79 | 1013.2 |
| 20260906150401 | 85 | 345 | 2.0 | 5.0 | 0.00 | 0.65 | 0.00 | 79 | 1013.3 |
| 20260906150300 | 85 | 347 | 5.0 | 7.0 | 0.00 | 0.65 | 0.00 | 79 | 1013.3 |
| 20260906150201 | 85 | 324 | 3.0 | 7.0 | 0.00 | 0.65 | 0.00 | 78 | 1013.3 |
| 20260906150010 | 85 | 321 | 4.0 | 7.0 | 0.00 | 0.65 | 0.00 | 78 | 1013.3 |
| 20260906145900 | 85 | 327 | 4.0 | 7.0 | 0.00 | 0.65 | 0.00 | 79 | 1013.3 |
| 20260906145800 | 85 | 281 | 5.0 | 7.0 | 0.00 | 0.65 | 0.00 | 79 | 1013.4 |
| 20260906145559 | 85 | 288 | 4.0 | 7.0 | 0.00 | 0.65 | 0.00 | 79 | 1013.4 |
| 20260906145300 | 85 | 327 | 4.0 | 6.0 | 0.00 | 0.65 | 0.00 | 79 | 1013.4 |
| 20260906145200 | 85 | 322 | 3.0 | 6.0 | 0.00 | 0.65 | 0.00 | 79 | 1013.4 |
| 20260906145100 | 85 | 300 | 2.0 | 6.0 | 0.00 | 0.65 | 0.00 | 79 | 1013.3 |
| 20260906145004 | 85 | 339 | 4.0 | 6.0 | 0.00 | 0.65 | 0.00 | 80 | 1013.3 |
| 20260906144859 | 84 | 352 | 5.0 | 6.0 | 0.00 | 0.65 | 0.00 | 80 | 1013.3 |
| 20260906144800 | 84 | 336 | 4.0 | 6.0 | 0.00 | 0.65 | 0.00 | 80 | 1013.4 |
| 20260906144600 | 84 | 295 | 3.0 | 6.0 | 0.00 | 0.65 | 0.00 | 81 | 1013.2 |
| 20260906144503 | 84 | 296 | 3.0 | 5.0 | 0.00 | 0.65 | 0.00 | 81 | 1013.2 |
| 20260906144400 | 84 | 336 | 3.0 | 5.0 | 0.00 | 0.65 | 0.00 | 81 | 1013.1 |
| 20260906144301 | 84 | 326 | 4.0 | 5.0 | 0.00 | 0.65 | 0.00 | 81 | 1013.1 |
| 20260906144200 | 84 | 330 | 3.0 | 5.0 | 0.00 | 0.65 | 0.00 | 81 | 1013.1 |
| 20260906144003 | 84 | 352 | 5.0 | 5.0 | 0.00 | 0.65 | 0.00 | 81 | 1013.1 |
| 20260906143900 | 84 | 338 | 4.0 | 5.0 | 0.00 | 0.65 | 0.00 | 82 | 1013.2 |
| 20260906143800 | 84 | 325 | 5.0 | 6.0 | 0.00 | 0.65 | 0.00 | 82 | 1013.2 |
| 20260906143701 | 84 | 322 | 4.0 | 6.0 | 0.00 | 0.65 | 0.00 | 82 | 1013.2 |
| 20260906143600 | 84 | 278 | 3.0 | 6.0 | 0.00 | 0.65 | 0.00 | 82 | 1013.2 |
| 20260906143503 | 84 | 272 | 2.0 | 6.0 | 0.00 | 0.65 | 0.00 | 82 | 1013.2 |
| 20260906143400 | 84 | 275 | 4.0 | 6.0 | 0.00 | 0.65 | 0.00 | 82 | 1013.2 |
| 20260906143201 | 83 | 305 | 4.0 | 6.0 | 0.00 | 0.65 | 0.00 | 83 | 1013.2 |
| 20260906143100 | 83 | 304 | 4.0 | 6.0 | 0.00 | 0.65 | 0.00 | 83 | 1013.2 |
| 20260906143003 | 83 | 345 | 4.0 | 6.0 | 0.00 | 0.65 | 0.00 | 83 | 1013.2 |
| 20260906142900 | 83 | 328 | 4.0 | 6.0 | 0.00 | 0.65 | 0.00 | 83 | 1013.2 |
| 20260906142801 | 83 | 345 | 5.0 | 6.0 | 0.00 | 0.65 | 0.00 | 83 | 1013.3 |
| 20260906142700 | 83 | 347 | 4.0 | 6.0 | 0.00 | 0.65 | 0.00 | 83 | 1013.3 |
| 20260906142600 | 83 | 356 | 6.0 | 6.0 | 0.00 | 0.65 | 0.00 | 83 | 1013.3 |
| 20260906142503 | 83 | 338 | 4.0 | 6.0 | 0.00 | 0.65 | 0.00 | 83 | 1013.3 |
| 20260906142400 | 83 | 319 | 4.0 | 6.0 | 0.00 | 0.65 | 0.00 | 83 | 1013.3 |
| 20260906142259 | 83 | 311 | 4.0 | 6.0 | 0.00 | 0.65 | 0.00 | 83 | 1013.3 |
| 20260906142200 | 83 | 329 | 4.0 | 6.0 | 0.00 | 0.65 | 0.00 | 83 | 1013.3 |
| 20260906142100 | 83 | 322 | 4.0 | 6.0 | 0.00 | 0.65 | 0.00 | 83 | 1013.4 |
| 20260906142003 | 83 | 313 | 5.0 | 6.0 | 0.00 | 0.65 | 0.00 | 84 | 1013.4 |
| 20260906141901 | 83 | 312 | 3.0 | 6.0 | 0.00 | 0.65 | 0.00 | 83 | 1013.3 |
| 20260906141759 | 83 | 320 | 3.0 | 6.0 | 0.00 | 0.65 | 0.00 | 84 | 1013.4 |
| 20260906141559 | 82 | 321 | 3.0 | 6.0 | 0.00 | 0.65 | 0.00 | 83 | 1013.3 |
| 20260906141503 | 83 | 319 | 4.0 | 5.0 | 0.00 | 0.65 | 0.00 | 84 | 1013.3 |
| 20260906141300 | 83 | 322 | 4.0 | 5.0 | 0.00 | 0.65 | 0.00 | 84 | 1013.3 |
| 20260906141200 | 83 | 319 | 4.0 | 5.0 | 0.00 | 0.65 | 0.00 | 84 | 1013.3 |
| 20260906141059 | 82 | 323 | 3.0 | 5.0 | 0.00 | 0.65 | 0.00 | 85 | 1013.2 |
| 20260906141003 | 82 | 327 | 3.0 | 5.0 | 0.00 | 0.65 | 0.00 | 85 | 1013.2 |
| 20260906140800 | 82 | 327 | 4.0 | 5.0 | 0.00 | 0.65 | 0.00 | 84 | 1013.2 |
| 20260906140700 | 82 | 339 | 4.0 | 5.0 | 0.00 | 0.65 | 0.00 | 85 | 1013.3 |
| 20260906140559 | 82 | 316 | 2.0 | 5.0 | 0.00 | 0.65 | 0.00 | 85 | 1013.2 |
| 20260906140502 | 82 | 330 | 4.0 | 5.0 | 0.00 | 0.65 | 0.00 | 85 | 1013.2 |
| 20260906140400 | 82 | 302 | 3.0 | 5.0 | 0.00 | 0.65 | 0.00 | 86 | 1013.2 |
| 20260906140300 | 82 | 317 | 4.0 | 5.0 | 0.00 | 0.65 | 0.00 | 85 | 1013.1 |
| 20260906140159 | 82 | 326 | 3.0 | 5.0 | 0.00 | 0.65 | 0.00 | 85 | 1013.2 |
| 20260906140006 | 82 | 311 | 3.0 | 5.0 | 0.00 | 0.65 | 0.00 | 86 | 1013.2 |
| 20260906135901 | 82 | 324 | 3.0 | 4.0 | 0.00 | 0.65 | 0.00 | 86 | 1013.2 |
| 20260906135801 | 82 | 326 | 3.0 | 4.0 | 0.00 | 0.65 | 0.00 | 86 | 1013.1 |
| 20260906135601 | 81 | 329 | 3.0 | 4.0 | 0.00 | 0.65 | 0.00 | 86 | 1013.1 |
| 20260906135504 | 81 | 357 | 0.0 | 4.0 | 0.00 | 0.65 | 0.00 | 87 | 1013.2 |
| 20260906135401 | 81 | 329 | 2.0 | 4.0 | 0.00 | 0.65 | 0.00 | 87 | 1013.2 |
| 20260906135300 | 81 | 331 | 2.0 | 4.0 | 0.00 | 0.65 | 0.00 | 87 | 1013.1 |
| 20260906135201 | 81 | 299 | 1.0 | 4.0 | 0.00 | 0.65 | 0.00 | 87 | 1013.1 |
| 20260906135101 | 81 | 356 | 3.0 | 4.0 | 0.00 | 0.65 | 0.00 | 87 | 1013.2 |
| 20260906135003 | 81 | 323 | 2.0 | 4.0 | 0.00 | 0.65 | 0.00 | 88 | 1013.2 |
| 20260906134900 | 81 | 307 | 3.0 | 4.0 | 0.00 | 0.65 | 0.00 | 88 | 1013.2 |
| 20260906134801 | 81 | 293 | 2.0 | 4.0 | 0.00 | 0.65 | 0.00 | 88 | 1013.2 |
| 20260906134601 | 81 | 308 | 2.0 | 4.0 | 0.00 | 0.65 | 0.00 | 89 | 1013.2 |
| 20260906134504 | 80 | 295 | 3.0 | 4.0 | 0.00 | 0.65 | 0.00 | 89 | 1013.2 |
| 20260906134402 | 80 | 258 | 2.0 | 4.0 | 0.00 | 0.65 | 0.00 | 88 | 1013.2 |
| 20260906134301 | 80 | 312 | 3.0 | 4.0 | 0.00 | 0.65 | 0.00 | 88 | 1013.2 |
| 20260906134201 | 80 | 282 | 2.0 | 4.0 | 0.00 | 0.65 | 0.00 | 88 | 1013.2 |
| 20260906134101 | 80 | 331 | 0.0 | 4.0 | 0.00 | 0.65 | 0.00 | 89 | 1013.2 |
| 20260906134004 | 80 | 305 | 2.0 | 4.0 | 0.00 | 0.65 | 0.00 | 89 | 1013.2 |
| 20260906133901 | 80 | 304 | 0.0 | 4.0 | 0.00 | 0.65 | 0.00 | 89 | 1013.3 |
| 20260906133800 | 80 | 340 | 2.0 | 4.0 | 0.00 | 0.65 | 0.00 | 89 | 1013.3 |
| 20260906133701 | 80 | 349 | 4.0 | 4.0 | 0.00 | 0.65 | 0.00 | 89 | 1013.3 |
| 20260906133402 | 79 | 25 | 0.0 | 4.0 | 0.00 | 0.65 | 0.00 | 89 | 1013.4 |
| 20260906133300 | 79 | 317 | 0.0 | 4.0 | 0.00 | 0.65 | 0.00 | 90 | 1013.3 |
| 20260906133202 | 79 | 294 | 0.0 | 4.0 | 0.00 | 0.65 | 0.00 | 90 | 1013.3 |
| 20260906133102 | 79 | 286 | 2.0 | 4.0 | 0.00 | 0.65 | 0.00 | 90 | 1013.3 |
| 20260906133004 | 79 | 298 | 2.0 | 4.0 | 0.00 | 0.65 | 0.00 | 90 | 1013.4 |
| 20260906132800 | 79 | 293 | 2.0 | 4.0 | 0.00 | 0.65 | 0.00 | 90 | 1013.4 |
| 20260906132701 | 79 | 297 | 3.0 | 4.0 | 0.00 | 0.65 | 0.00 | 90 | 1013.4 |
| 20260906132601 | 79 | 282 | 3.0 | 4.0 | 0.00 | 0.65 | 0.00 | 90 | 1013.4 |
| 20260906132306 | 79 | 294 | 2.0 | 4.0 | 0.00 | 0.65 | 0.00 | 91 | 1013.5 |
| 20260906132201 | 79 | 287 | 3.0 | 4.0 | 0.00 | 0.65 | 0.00 | 91 | 1013.5 |
| 20260906132101 | 79 | 274 | 3.0 | 4.0 | 0.00 | 0.65 | 0.00 | 91 | 1013.5 |
| 20260906132003 | 79 | 247 | 2.0 | 4.0 | 0.00 | 0.65 | 0.00 | 91 | 1013.4 |
| 20260906131902 | 79 | 275 | 2.0 | 4.0 | 0.00 | 0.65 | 0.00 | 91 | 1013.4 |
| 20260906131700 | 79 | 265 | 0.0 | 4.0 | 0.00 | 0.65 | 0.00 | 91 | 1013.5 |
| 20260906131503 | 79 | 288 | 3.0 | 4.0 | 0.00 | 0.65 | 0.00 | 92 | 1013.4 |
| 20260906131302 | 79 | 282 | 2.0 | 4.0 | 0.00 | 0.65 | 0.00 | 93 | 1013.5 |
| 20260906131200 | 79 | 293 | 2.0 | 4.0 | 0.00 | 0.65 | 0.00 | 93 | 1013.4 |
| 20260906131004 | 78 | 281 | 2.0 | 4.0 | 0.00 | 0.65 | 0.00 | 93 | 1013.5 |
| 20260906130901 | 78 | 281 | 2.0 | 4.0 | 0.00 | 0.65 | 0.00 | 93 | 1013.6 |
| 20260906130700 | 78 | 284 | 2.0 | 4.0 | 0.00 | 0.65 | 0.00 | 93 | 1013.5 |
| 20260906130602 | 78 | 296 | 0.0 | 4.0 | 0.00 | 0.65 | 0.00 | 93 | 1013.5 |
| 20260906130503 | 78 | 296 | 3.0 | 4.0 | 0.00 | 0.65 | 0.00 | 93 | 1013.5 |
| 20260906130401 | 78 | 280 | 2.0 | 4.0 | 0.00 | 0.65 | 0.00 | 94 | 1013.5 |
| 20260906130300 | 78 | 268 | 2.0 | 4.0 | 0.00 | 0.65 | 0.00 | 93 | 1013.5 |
| 20260906130200 | 78 | 279 | 1.0 | 4.0 | 0.00 | 0.65 | 0.00 | 93 | 1013.5 |
| 20260906125900 | 78 | 285 | 3.0 | 3.0 | 0.00 | 0.65 | 0.00 | 94 | 1013.5 |
| 20260906125800 | 78 | 283 | 3.0 | 3.0 | 0.00 | 0.65 | 0.00 | 94 | 1013.4 |
| 20260906125700 | 78 | 295 | 3.0 | 3.0 | 0.00 | 0.65 | 0.00 | 95 | 1013.4 |
| 20260906125559 | 78 | 272 | 2.0 | 3.0 | 0.00 | 0.65 | 0.00 | 95 | 1013.4 |
| 20260906125503 | 78 | 276 | 2.0 | 3.0 | 0.00 | 0.65 | 0.00 | 95 | 1013.4 |
| 20260906125359 | 78 | 281 | 3.0 | 3.0 | 0.00 | 0.65 | 0.00 | 95 | 1013.3 |
| 20260906125301 | 78 | 280 | 0.0 | 3.0 | 0.00 | 0.65 | 0.00 | 95 | 1013.4 |
| 20260906125200 | 78 | 281 | 2.0 | 3.0 | 0.00 | 0.65 | 0.00 | 95 | 1013.4 |
| 20260906125100 | 78 | 279 | 3.0 | 3.0 | 0.00 | 0.65 | 0.00 | 95 | 1013.3 |
| 20260906125003 | 77 | 246 | 2.0 | 3.0 | 0.00 | 0.65 | 0.00 | 95 | 1013.3 |
| 20260906124859 | 77 | 265 | 2.0 | 3.0 | 0.00 | 0.65 | 0.00 | 95 | 1013.3 |
| 20260906124700 | 77 | 307 | 2.0 | 3.0 | 0.00 | 0.65 | 0.00 | 95 | 1013.2 |
| 20260906124559 | 77 | 298 | 2.0 | 3.0 | 0.00 | 0.65 | 0.00 | 95 | 1013.2 |
| 20260906124502 | 77 | 274 | 2.0 | 3.0 | 0.00 | 0.65 | 0.00 | 95 | 1013.2 |
| 20260906124400 | 77 | 286 | 2.0 | 3.0 | 0.00 | 0.65 | 0.00 | 95 | 1013.2 |
| 20260906124300 | 77 | 277 | 3.0 | 3.0 | 0.00 | 0.65 | 0.00 | 95 | 1013.2 |
| 20260906124200 | 77 | 298 | 2.0 | 3.0 | 0.00 | 0.65 | 0.00 | 95 | 1013.1 |
| 20260906124059 | 77 | 302 | 2.0 | 3.0 | 0.00 | 0.65 | 0.00 | 95 | 1013.2 |
| 20260906124003 | 77 | 285 | 2.0 | 3.0 | 0.00 | 0.65 | 0.00 | 95 | 1013.2 |
| 20260906123859 | 77 | 296 | 2.0 | 3.0 | 0.00 | 0.65 | 0.00 | 95 | 1013.1 |
| 20260906123800 | 77 | 282 | 2.0 | 3.0 | 0.00 | 0.65 | 0.00 | 95 | 1013.2 |
| 20260906123659 | 77 | 280 | 3.0 | 3.0 | 0.00 | 0.65 | 0.00 | 95 | 1013.1 |
| 20260906123559 | 77 | 304 | 2.0 | 4.0 | 0.00 | 0.65 | 0.00 | 95 | 1013.2 |
| 20260906123259 | 77 | 287 | 3.0 | 4.0 | 0.00 | 0.65 | 0.00 | 95 | 1013.1 |
| 20260906123200 | 76 | 301 | 3.0 | 4.0 | 0.00 | 0.65 | 0.00 | 95 | 1013.2 |
| 20260906123101 | 76 | 295 | 0.0 | 4.0 | 0.00 | 0.65 | 0.00 | 95 | 1013.1 |
| 20260906123003 | 76 | 296 | 2.0 | 4.0 | 0.00 | 0.65 | 0.00 | 95 | 1013.1 |
| 20260906122901 | 76 | 302 | 3.0 | 4.0 | 0.00 | 0.65 | 0.00 | 95 | 1013.1 |
| 20260906122700 | 76 | 293 | 3.0 | 4.0 | 0.00 | 0.65 | 0.00 | 95 | 1013.2 |
| 20260906122600 | 76 | 288 | 3.0 | 3.0 | 0.00 | 0.65 | 0.00 | 95 | 1013.2 |
| 20260906122502 | 76 | 273 | 3.0 | 3.0 | 0.00 | 0.65 | 0.00 | 95 | 1013.2 |
| 20260906122259 | 76 | 307 | 2.0 | 3.0 | 0.00 | 0.65 | 0.00 | 95 | 1013.2 |
| 20260906122200 | 76 | 319 | 2.0 | 3.0 | 0.00 | 0.65 | 0.00 | 95 | 1013.2 |
| 20260906122059 | 76 | 316 | 3.0 | 4.0 | 0.00 | 0.65 | 0.00 | 96 | 1013.2 |
| 20260906122004 | 76 | 319 | 2.0 | 4.0 | 0.00 | 0.65 | 0.00 | 95 | 1013.2 |
| 20260906121800 | 76 | 316 | 3.0 | 4.0 | 0.00 | 0.65 | 0.00 | 96 | 1013.2 |
| 20260906121700 | 76 | 304 | 2.0 | 4.0 | 0.00 | 0.65 | 0.00 | 95 | 1013.2 |
| 20260906121601 | 76 | 305 | 2.0 | 4.0 | 0.00 | 0.65 | 0.00 | 96 | 1013.2 |
| 20260906121400 | 76 | 323 | 2.0 | 4.0 | 0.00 | 0.65 | 0.00 | 96 | 1013.2 |
| 20260906121259 | 76 | 304 | 2.0 | 4.0 | 0.00 | 0.65 | 0.00 | 96 | 1013.3 |
| 20260906121200 | 76 | 323 | 3.0 | 4.0 | 0.00 | 0.65 | 0.00 | 96 | 1013.2 |
| 20260906121059 | 76 | 300 | 2.0 | 4.0 | 0.00 | 0.65 | 0.00 | 95 | 1013.2 |
| 20260906120900 | 76 | 305 | 3.0 | 3.0 | 0.00 | 0.65 | 0.00 | 95 | 1013.2 |
| 20260906120800 | 76 | 296 | 3.0 | 3.0 | 0.00 | 0.65 | 0.00 | 95 | 1013.2 |
| 20260906120659 | 76 | 311 | 3.0 | 3.0 | 0.00 | 0.65 | 0.00 | 95 | 1013.2 |
| 20260906120600 | 76 | 335 | 1.0 | 3.0 | 0.00 | 0.65 | 0.00 | 95 | 1013.1 |
| 20260906120501 | 76 | 300 | 2.0 | 3.0 | 0.00 | 0.65 | 0.00 | 95 | 1013.2 |
| 20260906120400 | 76 | 321 | 2.0 | 3.0 | 0.00 | 0.65 | 0.00 | 95 | 1013.2 |
| 20260906120300 | 76 | 314 | 2.0 | 3.0 | 0.00 | 0.65 | 0.00 | 95 | 1013.2 |
| 20260906120200 | 76 | 330 | 0.0 | 3.0 | 0.00 | 0.65 | 0.00 | 95 | 1013.1 |
| 20260906120100 | 76 | 285 | 1.0 | 3.0 | 0.00 | 0.65 | 0.00 | 95 | 1013.2 |
| 20260906120003 | 76 | 311 | 2.0 | 3.0 | 0.00 | 0.65 | 0.00 | 95 | 1013.2 |
| 20260906115900 | 76 | 296 | 2.0 | 3.0 | 0.00 | 0.65 | 0.00 | 95 | 1013.2 |
| 20260906115800 | 76 | 309 | 2.0 | 3.0 | 0.00 | 0.65 | 0.00 | 95 | 1013.1 |
| 20260906115659 | 76 | 289 | 2.0 | 3.0 | 0.00 | 0.65 | 0.00 | 96 | 1013.2 |
| 20260906115559 | 76 | 302 | 0.0 | 3.0 | 0.00 | 0.65 | 0.00 | 95 | 1013.2 |
| 20260906115502 | 75 | 287 | 1.0 | 3.0 | 0.00 | 0.65 | 0.00 | 95 | 1013.2 |
| 20260906115359 | 75 | 276 | 2.0 | 3.0 | 0.00 | 0.65 | 0.00 | 95 | 1013.1 |
| 20260906115300 | 75 | 293 | 2.0 | 3.0 | 0.00 | 0.65 | 0.00 | 95 | 1013.1 |
| 20260906115200 | 76 | 294 | 2.0 | 3.0 | 0.00 | 0.65 | 0.00 | 95 | 1013.2 |
| 20260906115100 | 75 | 286 | 2.0 | 3.0 | 0.00 | 0.65 | 0.00 | 95 | 1013.2 |
| 20260906115004 | 75 | 288 | 3.0 | 3.0 | 0.00 | 0.65 | 0.00 | 96 | 1013.2 |
| 20260906114800 | 75 | 295 | 3.0 | 3.0 | 0.00 | 0.65 | 0.00 | 96 | 1013.2 |
| 20260906114700 | 75 | 305 | 2.0 | 3.0 | 0.00 | 0.65 | 0.00 | 96 | 1013.2 |
| 20260906114600 | 75 | 311 | 2.0 | 3.0 | 0.00 | 0.65 | 0.00 | 96 | 1013.1 |
| 20260906114502 | 75 | 307 | 2.0 | 3.0 | 0.00 | 0.65 | 0.00 | 96 | 1013.1 |
| 20260906114401 | 75 | 316 | 1.0 | 3.0 | 0.00 | 0.65 | 0.00 | 95 | 1013.1 |
| 20260906114300 | 75 | 295 | 2.0 | 3.0 | 0.00 | 0.65 | 0.00 | 96 | 1013.0 |
| 20260906114100 | 75 | 284 | 3.0 | 3.0 | 0.00 | 0.65 | 0.00 | 95 | 1013.1 |
| 20260906114003 | 75 | 284 | 2.0 | 3.0 | 0.00 | 0.65 | 0.00 | 95 | 1013.0 |
| 20260906113900 | 75 | 281 | 2.0 | 3.0 | 0.00 | 0.65 | 0.00 | 96 | 1013.0 |
| 20260906113801 | 75 | 300 | 2.0 | 3.0 | 0.00 | 0.65 | 0.00 | 95 | 1012.9 |
| 20260906113701 | 75 | 281 | 2.0 | 3.0 | 0.00 | 0.65 | 0.00 | 95 | 1013.0 |
| 20260906113600 | 75 | 283 | 2.0 | 3.0 | 0.00 | 0.65 | 0.00 | 95 | 1012.9 |
| 20260906113503 | 75 | 278 | 3.0 | 3.0 | 0.00 | 0.65 | 0.00 | 95 | 1013.0 |
| 20260906113359 | 75 | 267 | 3.0 | 3.0 | 0.00 | 0.65 | 0.00 | 95 | 1012.9 |
| 20260906113300 | 75 | 278 | 2.0 | 3.0 | 0.00 | 0.65 | 0.00 | 95 | 1012.9 |
| 20260906113159 | 75 | 280 | 3.0 | 3.0 | 0.00 | 0.65 | 0.00 | 96 | 1012.9 |
| 20260906113059 | 75 | 279 | 2.0 | 3.0 | 0.00 | 0.65 | 0.00 | 95 | 1012.8 |
| 20260906113005 | 75 | 295 | 2.0 | 3.0 | 0.00 | 0.65 | 0.00 | 95 | 1012.9 |
| 20260906112900 | 75 | 307 | 2.0 | 3.0 | 0.00 | 0.65 | 0.00 | 95 | 1013.0 |
| 20260906112800 | 75 | 311 | 2.0 | 3.0 | 0.00 | 0.65 | 0.00 | 95 | 1013.0 |
| 20260906112700 | 75 | 324 | 2.0 | 3.0 | 0.00 | 0.65 | 0.00 | 95 | 1012.8 |
| 20260906112559 | 75 | 294 | 1.0 | 3.0 | 0.00 | 0.65 | 0.00 | 95 | 1012.9 |
| 20260906112502 | 75 | 347 | 3.0 | 3.0 | 0.00 | 0.65 | 0.00 | 96 | 1012.9 |
| 20260906112359 | 75 | 319 | 2.0 | 3.0 | 0.00 | 0.65 | 0.00 | 95 | 1013.0 |
| 20260906112300 | 75 | 295 | 1.0 | 3.0 | 0.00 | 0.65 | 0.00 | 96 | 1013.0 |
| 20260906112200 | 75 | 302 | 2.0 | 3.0 | 0.00 | 0.65 | 0.00 | 95 | 1013.0 |
| 20260906112059 | 75 | 314 | 2.0 | 3.0 | 0.00 | 0.65 | 0.00 | 95 | 1013.0 |
| 20260906112003 | 75 | 281 | 2.0 | 3.0 | 0.00 | 0.65 | 0.00 | 95 | 1013.0 |
| 20260906111900 | 75 | 278 | 2.0 | 3.0 | 0.00 | 0.65 | 0.00 | 96 | 1012.9 |
| 20260906111759 | 75 | 276 | 3.0 | 3.0 | 0.00 | 0.65 | 0.00 | 95 | 1012.9 |
| 20260906111359 | 75 | 309 | 2.0 | 3.0 | 0.00 | 0.65 | 0.00 | 95 | 1012.8 |
| 20260906111300 | 75 | 285 | 2.0 | 3.0 | 0.00 | 0.65 | 0.00 | 95 | 1012.8 |
| 20260906111159 | 75 | 316 | 2.0 | 3.0 | 0.00 | 0.65 | 0.00 | 95 | 1012.8 |
| 20260906111100 | 75 | 290 | 2.0 | 3.0 | 0.00 | 0.65 | 0.00 | 95 | 1012.8 |
| 20260906111004 | 75 | 309 | 2.0 | 3.0 | 0.00 | 0.65 | 0.00 | 95 | 1012.7 |
| 20260906110900 | 75 | 314 | 2.0 | 3.0 | 0.00 | 0.65 | 0.00 | 95 | 1012.7 |
| 20260906110800 | 75 | 330 | 2.0 | 3.0 | 0.00 | 0.65 | 0.00 | 95 | 1012.7 |
| 20260906110659 | 75 | 310 | 2.0 | 3.0 | 0.00 | 0.65 | 0.00 | 95 | 1012.7 |
| 20260906110600 | 75 | 317 | 2.0 | 3.0 | 0.00 | 0.65 | 0.00 | 95 | 1012.7 |
| 20260906110503 | 75 | 300 | 2.0 | 3.0 | 0.00 | 0.65 | 0.00 | 95 | 1012.7 |
| 20260906110400 | 75 | 330 | 3.0 | 3.0 | 0.00 | 0.65 | 0.00 | 95 | 1012.6 |
| 20260906110301 | 75 | 316 | 3.0 | 3.0 | 0.00 | 0.65 | 0.00 | 95 | 1012.7 |
| 20260906110159 | 75 | 321 | 2.0 | 3.0 | 0.00 | 0.65 | 0.00 | 95 | 1012.6 |
| 20260906110100 | 75 | 309 | 2.0 | 3.0 | 0.00 | 0.65 | 0.00 | 95 | 1012.7 |
| 20260906110006 | 75 | 324 | 2.0 | 3.0 | 0.00 | 0.65 | 0.00 | 95 | 1012.7 |
| 20260906105901 | 75 | 295 | 3.0 | 3.0 | 0.00 | 0.65 | 0.00 | 95 | 1012.7 |
| 20260906105801 | 75 | 326 | 2.0 | 3.0 | 0.00 | 0.65 | 0.00 | 95 | 1012.7 |
| 20260906105700 | 75 | 307 | 2.0 | 3.0 | 0.00 | 0.65 | 0.00 | 95 | 1012.6 |
| 20260906105602 | 75 | 302 | 2.0 | 3.0 | 0.00 | 0.65 | 0.00 | 95 | 1012.6 |
| 20260906105503 | 75 | 304 | 2.0 | 3.0 | 0.00 | 0.65 | 0.00 | 95 | 1012.7 |
| 20260906105401 | 75 | 317 | 2.0 | 3.0 | 0.00 | 0.65 | 0.00 | 95 | 1012.7 |
| 20260906105300 | 75 | 333 | 2.0 | 3.0 | 0.00 | 0.65 | 0.00 | 95 | 1012.7 |
| 20260906105200 | 75 | 316 | 2.0 | 3.0 | 0.00 | 0.65 | 0.00 | 95 | 1012.6 |
| 20260906105101 | 75 | 304 | 2.0 | 3.0 | 0.00 | 0.65 | 0.00 | 95 | 1012.7 |
| 20260906105004 | 75 | 319 | 2.0 | 3.0 | 0.00 | 0.65 | 0.00 | 95 | 1012.7 |
| 20260906104901 | 75 | 309 | 2.0 | 3.0 | 0.00 | 0.65 | 0.00 | 95 | 1012.7 |
| 20260906104800 | 75 | 305 | 3.0 | 3.0 | 0.00 | 0.65 | 0.00 | 95 | 1012.7 |
| 20260906104701 | 75 | 319 | 2.0 | 3.0 | 0.00 | 0.65 | 0.00 | 95 | 1012.7 |
| 20260906104503 | 75 | 316 | 2.0 | 3.0 | 0.00 | 0.65 | 0.00 | 95 | 1012.6 |
| 20260906104402 | 75 | 328 | 2.0 | 3.0 | 0.00 | 0.65 | 0.00 | 95 | 1012.6 |
| 20260906104300 | 75 | 316 | 2.0 | 3.0 | 0.00 | 0.65 | 0.00 | 95 | 1012.5 |
| 20260906104201 | 75 | 330 | 2.0 | 3.0 | 0.00 | 0.65 | 0.00 | 95 | 1012.5 |
| 20260906104101 | 75 | 328 | 2.0 | 3.0 | 0.00 | 0.65 | 0.00 | 95 | 1012.5 |
| 20260906104004 | 75 | 319 | 1.0 | 3.0 | 0.00 | 0.65 | 0.00 | 95 | 1012.5 |
| 20260906103901 | 75 | 307 | 1.0 | 3.0 | 0.00 | 0.65 | 0.00 | 95 | 1012.5 |
| 20260906103800 | 75 | 319 | 0.0 | 3.0 | 0.00 | 0.65 | 0.00 | 95 | 1012.5 |
| 20260906103700 | 75 | 293 | 2.0 | 3.0 | 0.00 | 0.65 | 0.00 | 95 | 1012.5 |
| 20260906103600 | 75 | 302 | 0.0 | 3.0 | 0.00 | 0.65 | 0.00 | 95 | 1012.4 |
| 20260906103503 | 75 | 316 | 2.0 | 3.0 | 0.00 | 0.65 | 0.00 | 95 | 1012.4 |
| 20260906103401 | 75 | 323 | 1.0 | 3.0 | 0.00 | 0.65 | 0.00 | 95 | 1012.3 |
| 20260906103301 | 75 | 302 | 1.0 | 3.0 | 0.00 | 0.65 | 0.00 | 95 | 1012.4 |
| 20260906103201 | 75 | 302 | 2.0 | 3.0 | 0.00 | 0.65 | 0.00 | 95 | 1012.3 |
| 20260906103101 | 75 | 312 | 1.0 | 3.0 | 0.00 | 0.65 | 0.00 | 95 | 1012.3 |
| 20260906103005 | 75 | 316 | 2.0 | 3.0 | 0.00 | 0.65 | 0.00 | 95 | 1012.3 |
| 20260906102801 | 75 | 316 | 3.0 | 3.0 | 0.00 | 0.65 | 0.00 | 95 | 1012.3 |
| 20260906102602 | 75 | 311 | 2.0 | 3.0 | 0.00 | 0.65 | 0.00 | 95 | 1012.3 |
| 20260906102503 | 75 | 319 | 2.0 | 3.0 | 0.00 | 0.65 | 0.00 | 95 | 1012.3 |
| 20260906102402 | 75 | 317 | 2.0 | 3.0 | 0.00 | 0.65 | 0.00 | 95 | 1012.3 |
| 20260906102305 | 75 | 326 | 2.0 | 3.0 | 0.00 | 0.65 | 0.00 | 95 | 1012.4 |
| 20260906102200 | 75 | 309 | 2.0 | 3.0 | 0.00 | 0.65 | 0.00 | 95 | 1012.3 |
| 20260906102100 | 75 | 311 | 2.0 | 3.0 | 0.00 | 0.65 | 0.00 | 95 | 1012.3 |
| 20260906102005 | 75 | 319 | 1.0 | 3.0 | 0.00 | 0.65 | 0.00 | 95 | 1012.3 |
| 20260906101900 | 75 | 314 | 2.0 | 3.0 | 0.00 | 0.65 | 0.00 | 95 | 1012.4 |
| 20260906101801 | 75 | 321 | 2.0 | 3.0 | 0.00 | 0.65 | 0.00 | 95 | 1012.3 |
| 20260906101701 | 75 | 284 | 2.0 | 3.0 | 0.00 | 0.65 | 0.00 | 95 | 1012.3 |
| 20260906101600 | 75 | 305 | 2.0 | 3.0 | 0.00 | 0.65 | 0.00 | 95 | 1012.3 |
| 20260906101503 | 75 | 297 | 3.0 | 3.0 | 0.00 | 0.65 | 0.00 | 95 | 1012.3 |
| 20260906101400 | 75 | 300 | 2.0 | 3.0 | 0.00 | 0.65 | 0.00 | 95 | 1012.2 |
| 20260906101301 | 75 | 287 | 1.0 | 3.0 | 0.00 | 0.65 | 0.00 | 95 | 1012.2 |
| 20260906100900 | 75 | 295 | 2.0 | 3.0 | 0.00 | 0.65 | 0.00 | 95 | 1012.2 |
| 20260906100701 | 75 | 311 | 1.0 | 3.0 | 0.00 | 0.65 | 0.00 | 95 | 1012.1 |
| 20260906100600 | 75 | 309 | 2.0 | 3.0 | 0.00 | 0.65 | 0.00 | 95 | 1012.2 |
| 20260906100504 | 75 | 295 | 2.0 | 3.0 | 0.00 | 0.65 | 0.00 | 95 | 1012.1 |
| 20260906100400 | 75 | 281 | 3.0 | 3.0 | 0.00 | 0.65 | 0.00 | 95 | 1012.2 |
| 20260906100300 | 75 | 280 | 2.0 | 3.0 | 0.00 | 0.65 | 0.00 | 95 | 1012.1 |
| 20260906100003 | 75 | 295 | 2.0 | 3.0 | 0.00 | 0.65 | 0.00 | 95 | 1012.1 |
| 20260906095800 | 75 | 285 | 3.0 | 3.0 | 0.00 | 0.65 | 0.00 | 95 | 1012.2 |
| 20260906095600 | 75 | 293 | 2.0 | 3.0 | 0.00 | 0.65 | 0.00 | 95 | 1012.2 |
| 20260906095503 | 75 | 311 | 2.0 | 3.0 | 0.00 | 0.65 | 0.00 | 95 | 1012.1 |
| 20260906095200 | 75 | 305 | 3.0 | 3.0 | 0.00 | 0.65 | 0.00 | 95 | 1012.1 |
| 20260906095100 | 75 | 286 | 2.0 | 3.0 | 0.00 | 0.65 | 0.00 | 95 | 1012.0 |
| 20260906094859 | 75 | 296 | 2.0 | 3.0 | 0.00 | 0.65 | 0.00 | 95 | 1012.0 |
| 20260906094800 | 75 | 303 | 2.0 | 3.0 | 0.00 | 0.65 | 0.00 | 95 | 1012.0 |
| 20260906094701 | 75 | 314 | 3.0 | 3.0 | 0.00 | 0.65 | 0.00 | 94 | 1011.9 |
| 20260906094559 | 75 | 316 | 2.0 | 3.0 | 0.00 | 0.65 | 0.00 | 94 | 1011.9 |
| 20260906094504 | 75 | 307 | 2.0 | 3.0 | 0.00 | 0.65 | 0.00 | 94 | 1011.9 |
| 20260906094300 | 75 | 309 | 2.0 | 3.0 | 0.00 | 0.65 | 0.00 | 94 | 1011.9 |
| 20260906094159 | 75 | 302 | 3.0 | 3.0 | 0.00 | 0.65 | 0.00 | 94 | 1011.9 |
| 20260906094059 | 75 | 288 | 2.0 | 3.0 | 0.00 | 0.65 | 0.00 | 94 | 1011.9 |
| 20260906094003 | 75 | 296 | 2.0 | 3.0 | 0.00 | 0.65 | 0.00 | 94 | 1011.8 |
| 20260906093800 | 75 | 307 | 1.0 | 3.0 | 0.00 | 0.65 | 0.00 | 94 | 1011.9 |
| 20260906093700 | 75 | 316 | 2.0 | 3.0 | 0.00 | 0.65 | 0.00 | 94 | 1012.0 |
| 20260906093559 | 75 | 302 | 2.0 | 3.0 | 0.00 | 0.65 | 0.00 | 94 | 1011.9 |
| 20260906093502 | 75 | 293 | 2.0 | 3.0 | 0.00 | 0.65 | 0.00 | 94 | 1011.9 |
| 20260906093400 | 75 | 302 | 1.0 | 3.0 | 0.00 | 0.65 | 0.00 | 94 | 1011.9 |
| 20260906093259 | 75 | 319 | 2.0 | 3.0 | 0.00 | 0.65 | 0.00 | 94 | 1012.0 |
| 20260906093201 | 75 | 302 | 0.0 | 3.0 | 0.00 | 0.65 | 0.00 | 94 | 1011.8 |
| 20260906093004 | 75 | 295 | 2.0 | 3.0 | 0.00 | 0.65 | 0.00 | 94 | 1011.9 |
| 20260906092900 | 75 | 309 | 2.0 | 3.0 | 0.00 | 0.65 | 0.00 | 94 | 1011.9 |
| 20260906092800 | 75 | 314 | 2.0 | 3.0 | 0.00 | 0.65 | 0.00 | 94 | 1011.9 |
| 20260906092700 | 75 | 316 | 3.0 | 3.0 | 0.00 | 0.65 | 0.00 | 94 | 1011.9 |
| 20260906092601 | 75 | 302 | 3.0 | 3.0 | 0.00 | 0.65 | 0.00 | 94 | 1011.8 |
| 20260906092502 | 75 | 295 | 3.0 | 3.0 | 0.00 | 0.65 | 0.00 | 94 | 1011.8 |
| 20260906092300 | 75 | 314 | 2.0 | 3.0 | 0.00 | 0.65 | 0.00 | 94 | 1011.9 |
| 20260906092200 | 75 | 302 | 2.0 | 3.0 | 0.00 | 0.65 | 0.00 | 94 | 1011.8 |
| 20260906092100 | 75 | 312 | 2.0 | 3.0 | 0.00 | 0.65 | 0.00 | 94 | 1011.9 |
| 20260906092003 | 75 | 303 | 2.0 | 3.0 | 0.00 | 0.65 | 0.00 | 94 | 1011.9 |
| 20260906091759 | 75 | 295 | 3.0 | 3.0 | 0.00 | 0.65 | 0.00 | 94 | 1011.9 |
| 20260906091700 | 75 | 317 | 1.0 | 3.0 | 0.00 | 0.65 | 0.00 | 94 | 1011.9 |
| 20260906091600 | 75 | 316 | 1.0 | 3.0 | 0.00 | 0.65 | 0.00 | 94 | 1011.9 |
| 20260906091503 | 75 | 321 | 0.0 | 3.0 | 0.00 | 0.65 | 0.00 | 94 | 1011.9 |
| 20260906091359 | 75 | 316 | 2.0 | 3.0 | 0.00 | 0.65 | 0.00 | 94 | 1011.8 |
| 20260906091300 | 75 | 312 | 1.0 | 3.0 | 0.00 | 0.65 | 0.00 | 94 | 1011.9 |
| 20260906091200 | 75 | 298 | 1.0 | 3.0 | 0.00 | 0.65 | 0.00 | 94 | 1011.8 |
| 20260906091100 | 75 | 295 | 2.0 | 3.0 | 0.00 | 0.65 | 0.00 | 94 | 1011.8 |
| 20260906091003 | 75 | 295 | 2.0 | 2.0 | 0.00 | 0.65 | 0.00 | 94 | 1011.8 |
| 20260906090900 | 75 | 321 | 1.0 | 2.0 | 0.00 | 0.65 | 0.00 | 94 | 1011.8 |
| 20260906090800 | 75 | 324 | 2.0 | 2.0 | 0.00 | 0.65 | 0.00 | 94 | 1011.8 |
| 20260906090700 | 75 | 311 | 1.0 | 2.0 | 0.00 | 0.65 | 0.00 | 94 | 1011.8 |
| 20260906090559 | 75 | 326 | 2.0 | 2.0 | 0.00 | 0.65 | 0.00 | 94 | 1011.8 |
| 20260906090503 | 75 | 326 | 2.0 | 2.0 | 0.00 | 0.65 | 0.00 | 94 | 1011.8 |
| 20260906090400 | 75 | 314 | 1.0 | 3.0 | 0.00 | 0.65 | 0.00 | 94 | 1011.8 |
| 20260906090300 | 75 | 328 | 0.0 | 3.0 | 0.00 | 0.65 | 0.00 | 94 | 1011.8 |
| 20260906090159 | 75 | 323 | 2.0 | 3.0 | 0.00 | 0.65 | 0.00 | 94 | 1011.8 |
| 20260906090059 | 75 | 285 | 0.0 | 3.0 | 0.00 | 0.65 | 0.00 | 93 | 1011.7 |
| 20260906090004 | 75 | 316 | 1.0 | 3.0 | 0.00 | 0.65 | 0.00 | 93 | 1011.8 |
| 20260906085901 | 75 | 316 | 0.0 | 3.0 | 0.00 | 0.65 | 0.00 | 94 | 1011.8 |
| 20260906085800 | 75 | 307 | 2.0 | 3.0 | 0.00 | 0.65 | 0.00 | 94 | 1011.8 |
| 20260906085600 | 75 | 286 | 2.0 | 3.0 | 0.00 | 0.65 | 0.00 | 94 | 1011.8 |
| 20260906085503 | 75 | 283 | 2.0 | 3.0 | 0.00 | 0.65 | 0.00 | 93 | 1011.8 |
| 20260906085400 | 75 | 293 | 2.0 | 3.0 | 0.00 | 0.65 | 0.00 | 93 | 1011.9 |
| 20260906085300 | 75 | 288 | 1.0 | 3.0 | 0.00 | 0.65 | 0.00 | 93 | 1011.9 |
| 20260906085059 | 75 | 326 | 1.0 | 3.0 | 0.00 | 0.65 | 0.00 | 93 | 1011.8 |
| 20260906085003 | 75 | 312 | 3.0 | 3.0 | 0.00 | 0.65 | 0.00 | 93 | 1011.8 |
| 20260906084859 | 75 | 310 | 2.0 | 3.0 | 0.00 | 0.65 | 0.00 | 93 | 1011.8 |
| 20260906084700 | 75 | 307 | 2.0 | 3.0 | 0.00 | 0.65 | 0.00 | 93 | 1011.7 |
| 20260906084600 | 75 | 324 | 2.0 | 3.0 | 0.00 | 0.65 | 0.00 | 93 | 1011.7 |
| 20260906084502 | 75 | 323 | 2.0 | 3.0 | 0.00 | 0.65 | 0.00 | 93 | 1011.7 |
| 20260906084359 | 75 | 321 | 2.0 | 2.0 | 0.00 | 0.65 | 0.00 | 93 | 1011.6 |
| 20260906084259 | 75 | 311 | 2.0 | 3.0 | 0.00 | 0.65 | 0.00 | 93 | 1011.7 |
| 20260906084200 | 75 | 309 | 1.0 | 3.0 | 0.00 | 0.65 | 0.00 | 93 | 1011.6 |
| 20260906084100 | 75 | 307 | 1.0 | 3.0 | 0.00 | 0.65 | 0.00 | 93 | 1011.6 |
| 20260906084003 | 75 | 319 | 1.0 | 3.0 | 0.00 | 0.65 | 0.00 | 93 | 1011.7 |
| 20260906083900 | 75 | 323 | 1.0 | 3.0 | 0.00 | 0.65 | 0.00 | 93 | 1011.7 |
| 20260906083800 | 75 | 312 | 2.0 | 3.0 | 0.00 | 0.65 | 0.00 | 93 | 1011.7 |
| 20260906083700 | 75 | 311 | 1.0 | 3.0 | 0.00 | 0.65 | 0.00 | 93 | 1011.7 |
| 20260906083600 | 75 | 321 | 2.0 | 3.0 | 0.00 | 0.65 | 0.00 | 93 | 1011.7 |
| 20260906083502 | 75 | 328 | 1.0 | 3.0 | 0.00 | 0.65 | 0.00 | 93 | 1011.7 |
| 20260906083400 | 75 | 296 | 1.0 | 2.0 | 0.00 | 0.65 | 0.00 | 93 | 1011.7 |
| 20260906083259 | 75 | 333 | 0.0 | 3.0 | 0.00 | 0.65 | 0.00 | 93 | 1011.7 |
| 20260906083159 | 75 | 328 | 1.0 | 3.0 | 0.00 | 0.65 | 0.00 | 93 | 1011.7 |
| 20260906083003 | 75 | 309 | 1.0 | 3.0 | 0.00 | 0.65 | 0.00 | 93 | 1011.7 |
| 20260906082900 | 75 | 326 | 2.0 | 3.0 | 0.00 | 0.65 | 0.00 | 93 | 1011.7 |
| 20260906082802 | 75 | 309 | 2.0 | 3.0 | 0.00 | 0.65 | 0.00 | 93 | 1011.7 |
| 20260906082700 | 75 | 307 | 1.0 | 3.0 | 0.00 | 0.65 | 0.00 | 93 | 1011.7 |
| 20260906082559 | 75 | 303 | 0.0 | 3.0 | 0.00 | 0.65 | 0.00 | 93 | 1011.7 |
| 20260906082501 | 75 | 296 | 2.0 | 3.0 | 0.00 | 0.65 | 0.00 | 93 | 1011.7 |
| 20260906082359 | 75 | 307 | 1.0 | 2.0 | 0.00 | 0.65 | 0.00 | 92 | 1011.6 |
| 20260906082259 | 75 | 307 | 1.0 | 2.0 | 0.00 | 0.65 | 0.00 | 92 | 1011.6 |
| 20260906082200 | 75 | 317 | 0.0 | 2.0 | 0.00 | 0.65 | 0.00 | 92 | 1011.6 |
| 20260906082059 | 75 | 291 | 0.0 | 3.0 | 0.00 | 0.65 | 0.00 | 92 | 1011.6 |
| 20260906082004 | 75 | 310 | 1.0 | 3.0 | 0.00 | 0.65 | 0.00 | 92 | 1011.5 |
| 20260906081859 | 75 | 323 | 2.0 | 3.0 | 0.00 | 0.65 | 0.00 | 92 | 1011.5 |
| 20260906081800 | 75 | 326 | 0.0 | 3.0 | 0.00 | 0.65 | 0.00 | 92 | 1011.6 |
| 20260906081659 | 75 | 312 | 2.0 | 3.0 | 0.00 | 0.65 | 0.00 | 92 | 1011.6 |
| 20260906081559 | 75 | 309 | 1.0 | 3.0 | 0.00 | 0.65 | 0.00 | 92 | 1011.6 |
| 20260906081400 | 75 | 307 | 2.0 | 3.0 | 0.00 | 0.65 | 0.00 | 92 | 1011.7 |
| 20260906081259 | 75 | 300 | 2.0 | 3.0 | 0.00 | 0.65 | 0.00 | 92 | 1011.6 |
| 20260906081201 | 76 | 314 | 2.0 | 3.0 | 0.00 | 0.65 | 0.00 | 92 | 1011.6 |
| 20260906081100 | 75 | 309 | 2.0 | 3.0 | 0.00 | 0.65 | 0.00 | 92 | 1011.7 |
| 20260906081004 | 76 | 307 | 1.0 | 3.0 | 0.00 | 0.65 | 0.00 | 92 | 1011.7 |
| 20260906080759 | 75 | 297 | 2.0 | 3.0 | 0.00 | 0.65 | 0.00 | 92 | 1011.7 |
| 20260906080600 | 76 | 307 | 2.0 | 3.0 | 0.00 | 0.65 | 0.00 | 92 | 1011.6 |
| 20260906080502 | 76 | 296 | 2.0 | 3.0 | 0.00 | 0.65 | 0.00 | 92 | 1011.6 |
| 20260906080400 | 76 | 321 | 2.0 | 3.0 | 0.00 | 0.65 | 0.00 | 92 | 1011.6 |
| 20260906080300 | 76 | 296 | 2.0 | 3.0 | 0.00 | 0.65 | 0.00 | 92 | 1011.7 |
| 20260906080200 | 76 | 294 | 0.0 | 2.0 | 0.00 | 0.65 | 0.00 | 92 | 1011.6 |
| 20260906080100 | 76 | 319 | 1.0 | 2.0 | 0.00 | 0.65 | 0.00 | 92 | 1011.7 |
| 20260906080003 | 76 | 314 | 2.0 | 2.0 | 0.00 | 0.65 | 0.00 | 92 | 1011.7 |
| 20260906075900 | 76 | 300 | 1.0 | 2.0 | 0.00 | 0.65 | 0.00 | 92 | 1011.7 |
| 20260906075800 | 76 | 328 | 1.0 | 3.0 | 0.00 | 0.65 | 0.00 | 92 | 1011.7 |
| 20260906075659 | 76 | 324 | 1.0 | 3.0 | 0.00 | 0.65 | 0.00 | 92 | 1011.7 |
| 20260906075600 | 76 | 307 | 0.0 | 3.0 | 0.00 | 0.65 | 0.00 | 92 | 1011.8 |
| 20260906075400 | 76 | 312 | 1.0 | 3.0 | 0.00 | 0.65 | 0.00 | 91 | 1011.8 |
| 20260906075259 | 76 | 302 | 1.0 | 3.0 | 0.00 | 0.65 | 0.00 | 91 | 1011.7 |
| 20260906075200 | 76 | 314 | 1.0 | 3.0 | 0.00 | 0.65 | 0.00 | 92 | 1011.7 |
| 20260906075100 | 76 | 321 | 0.0 | 3.0 | 0.00 | 0.65 | 0.00 | 91 | 1011.8 |
| 20260906074900 | 76 | 294 | 2.0 | 3.0 | 0.00 | 0.65 | 0.00 | 92 | 1011.7 |
| 20260906074700 | 76 | 303 | 2.0 | 3.0 | 0.00 | 0.65 | 0.00 | 92 | 1011.7 |
| 20260906074559 | 76 | 305 | 1.0 | 3.0 | 0.00 | 0.65 | 0.00 | 91 | 1011.8 |
| 20260906074503 | 76 | 324 | 2.0 | 3.0 | 0.00 | 0.65 | 0.00 | 91 | 1011.7 |
| 20260906074200 | 76 | 324 | 2.0 | 2.0 | 0.00 | 0.65 | 0.00 | 91 | 1011.9 |
| 20260906074100 | 76 | 326 | 1.0 | 3.0 | 0.00 | 0.65 | 0.00 | 91 | 1011.8 |
| 20260906074003 | 76 | 309 | 0.0 | 3.0 | 0.00 | 0.65 | 0.00 | 91 | 1011.8 |
| 20260906073900 | 76 | 295 | 0.0 | 3.0 | 0.00 | 0.65 | 0.00 | 91 | 1011.8 |
| 20260906073700 | 76 | 310 | 0.0 | 3.0 | 0.00 | 0.65 | 0.00 | 91 | 1011.8 |
| 20260906073559 | 76 | 316 | 2.0 | 3.0 | 0.00 | 0.65 | 0.00 | 91 | 1011.8 |
| 20260906073500 | 76 | 321 | 2.0 | 3.0 | 0.00 | 0.65 | 0.00 | 91 | 1011.7 |
| 20260906073359 | 76 | 323 | 1.0 | 3.0 | 0.00 | 0.65 | 0.00 | 91 | 1011.8 |
| 20260906073300 | 76 | 304 | 2.0 | 3.0 | 0.00 | 0.65 | 0.00 | 91 | 1011.8 |
| 20260906073200 | 76 | 280 | 2.0 | 3.0 | 0.00 | 0.65 | 0.00 | 91 | 1011.9 |
| 20260906073100 | 76 | 302 | 2.0 | 3.0 | 0.00 | 0.65 | 0.00 | 91 | 1011.8 |
| 20260906073003 | 76 | 297 | 2.0 | 3.0 | 0.00 | 0.65 | 0.00 | 91 | 1011.9 |
| 20260906072900 | 76 | 302 | 2.0 | 3.0 | 0.00 | 0.65 | 0.00 | 91 | 1011.9 |
| 20260906072759 | 76 | 316 | 2.0 | 3.0 | 0.00 | 0.65 | 0.00 | 91 | 1011.9 |
| 20260906072701 | 76 | 314 | 2.0 | 3.0 | 0.00 | 0.65 | 0.00 | 91 | 1011.9 |
| 20260906072600 | 76 | 311 | 2.0 | 3.0 | 0.00 | 0.65 | 0.00 | 91 | 1011.9 |
| 20260906072259 | 76 | 321 | 2.0 | 3.0 | 0.00 | 0.65 | 0.00 | 91 | 1011.8 |
| 20260906072200 | 76 | 290 | 3.0 | 3.0 | 0.00 | 0.65 | 0.00 | 91 | 1011.8 |
| 20260906072059 | 76 | 316 | 2.0 | 3.0 | 0.00 | 0.65 | 0.00 | 91 | 1011.8 |
| 20260906072003 | 76 | 309 | 2.0 | 3.0 | 0.00 | 0.65 | 0.00 | 91 | 1011.8 |
| 20260906071900 | 76 | 323 | 2.0 | 3.0 | 0.00 | 0.65 | 0.00 | 91 | 1011.8 |
| 20260906071800 | 76 | 314 | 2.0 | 3.0 | 0.00 | 0.65 | 0.00 | 91 | 1011.8 |
| 20260906071700 | 76 | 307 | 2.0 | 3.0 | 0.00 | 0.65 | 0.00 | 91 | 1011.7 |
| 20260906071600 | 76 | 307 | 3.0 | 3.0 | 0.00 | 0.65 | 0.00 | 91 | 1011.8 |
| 20260906071400 | 76 | 316 | 2.0 | 3.0 | 0.00 | 0.65 | 0.00 | 91 | 1011.8 |
| 20260906071159 | 76 | 287 | 3.0 | 3.0 | 0.00 | 0.65 | 0.00 | 91 | 1011.7 |
| 20260906071100 | 76 | 281 | 3.0 | 3.0 | 0.00 | 0.65 | 0.00 | 91 | 1011.7 |
| 20260906071004 | 76 | 279 | 1.0 | 3.0 | 0.00 | 0.65 | 0.00 | 91 | 1011.8 |
| 20260906070900 | 76 | 309 | 1.0 | 3.0 | 0.00 | 0.65 | 0.00 | 91 | 1011.8 |
| 20260906070759 | 76 | 302 | 2.0 | 3.0 | 0.00 | 0.65 | 0.00 | 91 | 1011.8 |
| 20260906070700 | 76 | 295 | 2.0 | 3.0 | 0.00 | 0.65 | 0.00 | 91 | 1011.8 |
| 20260906070600 | 76 | 307 | 2.0 | 3.0 | 0.00 | 0.65 | 0.00 | 91 | 1011.8 |
| 20260906070501 | 76 | 319 | 2.0 | 3.0 | 0.00 | 0.65 | 0.00 | 91 | 1011.9 |
| 20260906070300 | 76 | 293 | 3.0 | 3.0 | 0.00 | 0.65 | 0.00 | 91 | 1011.9 |
| 20260906070159 | 76 | 305 | 2.0 | 3.0 | 0.00 | 0.65 | 0.00 | 91 | 1011.9 |
| 20260906065858 | 76 | 307 | 0.0 | 3.0 | 0.00 | 0.65 | 0.00 | 91 | 1011.8 |
| 20260906065758 | 76 | 316 | 2.0 | 3.0 | 0.00 | 0.65 | 0.00 | 91 | 1011.8 |
| 20260906065659 | 76 | 319 | 2.0 | 3.0 | 0.00 | 0.65 | 0.00 | 91 | 1011.8 |
| 20260906065559 | 76 | 304 | 2.0 | 3.0 | 0.00 | 0.65 | 0.00 | 91 | 1011.8 |
| 20260906065500 | 76 | 303 | 2.0 | 3.0 | 0.00 | 0.65 | 0.00 | 91 | 1011.8 |
| 20260906065358 | 76 | 310 | 0.0 | 3.0 | 0.00 | 0.65 | 0.00 | 91 | 1011.8 |
| 20260906065259 | 76 | 287 | 1.0 | 3.0 | 0.00 | 0.65 | 0.00 | 91 | 1011.9 |
| 20260906065159 | 76 | 295 | 2.0 | 3.0 | 0.00 | 0.65 | 0.00 | 91 | 1011.8 |
| 20260906065003 | 76 | 311 | 1.0 | 3.0 | 0.00 | 0.65 | 0.00 | 91 | 1011.9 |
| 20260906064859 | 76 | 333 | 1.0 | 3.0 | 0.00 | 0.65 | 0.00 | 91 | 1011.9 |
| 20260906064800 | 76 | 305 | 2.0 | 3.0 | 0.00 | 0.65 | 0.00 | 91 | 1011.9 |
| 20260906064659 | 76 | 302 | 2.0 | 3.0 | 0.00 | 0.65 | 0.00 | 91 | 1011.9 |
| 20260906064558 | 76 | 300 | 2.0 | 3.0 | 0.00 | 0.65 | 0.00 | 91 | 1011.9 |
| 20260906064500 | 76 | 309 | 3.0 | 3.0 | 0.00 | 0.65 | 0.00 | 91 | 1011.9 |
| 20260906064358 | 76 | 314 | 2.0 | 3.0 | 0.00 | 0.65 | 0.00 | 91 | 1011.9 |
| 20260906064258 | 76 | 316 | 2.0 | 3.0 | 0.00 | 0.65 | 0.00 | 91 | 1011.9 |
| 20260906064159 | 76 | 328 | 2.0 | 3.0 | 0.00 | 0.65 | 0.00 | 91 | 1011.9 |
| 20260906064059 | 76 | 330 | 2.0 | 3.0 | 0.00 | 0.65 | 0.00 | 90 | 1011.9 |
| 20260906064002 | 76 | 328 | 3.0 | 3.0 | 0.00 | 0.65 | 0.00 | 90 | 1012.0 |
| 20260906063900 | 76 | 321 | 3.0 | 3.0 | 0.00 | 0.65 | 0.00 | 90 | 1012.0 |
| 20260906063657 | 76 | 314 | 2.0 | 3.0 | 0.00 | 0.65 | 0.00 | 90 | 1012.0 |
| 20260906063500 | 76 | 317 | 2.0 | 3.0 | 0.00 | 0.65 | 0.00 | 90 | 1012.1 |
| 20260906063358 | 76 | 324 | 2.0 | 3.0 | 0.00 | 0.65 | 0.00 | 90 | 1012.1 |
| 20260906063258 | 76 | 317 | 2.0 | 3.0 | 0.00 | 0.65 | 0.00 | 90 | 1012.0 |
| 20260906063059 | 76 | 319 | 2.0 | 3.0 | 0.00 | 0.65 | 0.00 | 90 | 1011.9 |
| 20260906063003 | 76 | 347 | 2.0 | 3.0 | 0.00 | 0.65 | 0.00 | 90 | 1011.9 |
| 20260906062859 | 76 | 317 | 1.0 | 3.0 | 0.00 | 0.65 | 0.00 | 90 | 1011.9 |
| 20260906062759 | 76 | 317 | 0.0 | 3.0 | 0.00 | 0.65 | 0.00 | 90 | 1011.9 |
| 20260906062659 | 76 | 302 | 1.0 | 3.0 | 0.00 | 0.65 | 0.00 | 90 | 1011.9 |
| 20260906062559 | 76 | 288 | 2.0 | 3.0 | 0.00 | 0.65 | 0.00 | 90 | 1011.9 |
| 20260906062500 | 76 | 314 | 2.0 | 3.0 | 0.00 | 0.65 | 0.00 | 90 | 1011.9 |
| 20260906062359 | 76 | 309 | 2.0 | 3.0 | 0.00 | 0.65 | 0.00 | 90 | 1011.9 |
| 20260906062259 | 76 | 345 | 2.0 | 3.0 | 0.00 | 0.65 | 0.00 | 90 | 1012.0 |
| 20260906062159 | 76 | 340 | 2.0 | 3.0 | 0.00 | 0.65 | 0.00 | 90 | 1012.0 |
| 20260906062059 | 76 | 324 | 1.0 | 3.0 | 0.00 | 0.65 | 0.00 | 90 | 1012.0 |
| 20260906062003 | 76 | 307 | 2.0 | 3.0 | 0.00 | 0.65 | 0.00 | 90 | 1012.0 |
| 20260906061858 | 76 | 305 | 2.0 | 3.0 | 0.00 | 0.65 | 0.00 | 90 | 1012.0 |
| 20260906061758 | 76 | 314 | 2.0 | 3.0 | 0.00 | 0.65 | 0.00 | 90 | 1012.0 |
| 20260906061658 | 76 | 302 | 1.0 | 3.0 | 0.00 | 0.65 | 0.00 | 90 | 1012.0 |
| 20260906061558 | 76 | 316 | 1.0 | 3.0 | 0.00 | 0.65 | 0.00 | 90 | 1012.0 |
| 20260906061501 | 76 | 288 | 3.0 | 3.0 | 0.00 | 0.65 | 0.00 | 90 | 1012.0 |
| 20260906061359 | 76 | 305 | 2.0 | 3.0 | 0.00 | 0.65 | 0.00 | 90 | 1012.0 |
| 20260906061259 | 76 | 307 | 1.0 | 3.0 | 0.00 | 0.65 | 0.00 | 90 | 1012.0 |
| 20260906061158 | 76 | 310 | 2.0 | 3.0 | 0.00 | 0.65 | 0.00 | 90 | 1012.0 |
| 20260906061002 | 76 | 310 | 2.0 | 3.0 | 0.00 | 0.65 | 0.00 | 90 | 1012.0 |
| 20260906060858 | 76 | 300 | 2.0 | 3.0 | 0.00 | 0.65 | 0.00 | 90 | 1012.0 |
| 20260906060759 | 76 | 309 | 1.0 | 3.0 | 0.00 | 0.65 | 0.00 | 90 | 1012.0 |
| 20260906060659 | 76 | 314 | 2.0 | 3.0 | 0.00 | 0.65 | 0.00 | 90 | 1012.0 |
| 20260906060558 | 76 | 321 | 2.0 | 3.0 | 0.00 | 0.65 | 0.00 | 90 | 1011.9 |
| 20260906060500 | 76 | 333 | 0.0 | 2.0 | 0.00 | 0.65 | 0.00 | 90 | 1011.9 |
| 20260906060358 | 76 | 331 | 2.0 | 2.0 | 0.00 | 0.65 | 0.00 | 90 | 1012.0 |
| 20260906060258 | 76 | 333 | 0.0 | 2.0 | 0.00 | 0.65 | 0.00 | 90 | 1011.9 |
| 20260906060158 | 76 | 284 | 0.0 | 2.0 | 0.00 | 0.65 | 0.00 | 90 | 1011.9 |
| 20260906060057 | 76 | 307 | 1.0 | 2.0 | 0.00 | 0.65 | 0.00 | 90 | 1011.9 |
| 20260906060008 | 76 | 295 | 0.0 | 2.0 | 0.00 | 0.65 | 0.00 | 90 | 1011.9 |
| 20260906055902 | 76 | 280 | 0.0 | 2.0 | 0.00 | 0.65 | 0.00 | 90 | 1011.9 |
| 20260906055802 | 76 | 241 | 0.0 | 3.0 | 0.00 | 0.65 | 0.00 | 90 | 1011.9 |
| 20260906055702 | 76 | 304 | 0.0 | 3.0 | 0.00 | 0.65 | 0.00 | 90 | 1012.0 |
| 20260906055601 | 76 | 304 | 0.0 | 3.0 | 0.00 | 0.65 | 0.00 | 90 | 1012.0 |
| 20260906055505 | 76 | 314 | 0.0 | 3.0 | 0.00 | 0.65 | 0.00 | 90 | 1012.0 |
| 20260906055306 | 76 | 311 | 2.0 | 3.0 | 0.00 | 0.65 | 0.00 | 90 | 1012.1 |
| 20260906055201 | 76 | 333 | 0.0 | 3.0 | 0.00 | 0.65 | 0.00 | 89 | 1012.1 |
| 20260906055101 | 76 | 307 | 2.0 | 3.0 | 0.00 | 0.65 | 0.00 | 89 | 1012.2 |
| 20260906055005 | 76 | 314 | 1.0 | 3.0 | 0.00 | 0.65 | 0.00 | 89 | 1012.3 |
| 20260906054902 | 76 | 308 | 2.0 | 3.0 | 0.00 | 0.65 | 0.00 | 89 | 1012.3 |
| 20260906054802 | 76 | 319 | 2.0 | 3.0 | 0.00 | 0.65 | 0.00 | 89 | 1012.3 |
| 20260906054702 | 76 | 297 | 2.0 | 3.0 | 0.00 | 0.65 | 0.00 | 89 | 1012.3 |
| 20260906054601 | 76 | 317 | 2.0 | 3.0 | 0.00 | 0.65 | 0.00 | 89 | 1012.3 |
| 20260906054503 | 76 | 305 | 2.0 | 3.0 | 0.00 | 0.65 | 0.00 | 89 | 1012.3 |
| 20260906054402 | 76 | 280 | 2.0 | 3.0 | 0.00 | 0.65 | 0.00 | 89 | 1012.3 |
| 20260906054301 | 77 | 295 | 2.0 | 3.0 | 0.00 | 0.65 | 0.00 | 89 | 1012.3 |
| 20260906054202 | 76 | 287 | 0.0 | 3.0 | 0.00 | 0.65 | 0.00 | 89 | 1012.4 |
| 20260906054102 | 77 | 285 | 2.0 | 3.0 | 0.00 | 0.65 | 0.00 | 89 | 1012.5 |
| 20260906054005 | 76 | 288 | 2.0 | 3.0 | 0.00 | 0.65 | 0.00 | 89 | 1012.5 |
| 20260906053901 | 77 | 314 | 2.0 | 3.0 | 0.00 | 0.65 | 0.00 | 89 | 1012.5 |
| 20260906053802 | 77 | 296 | 2.0 | 3.0 | 0.00 | 0.65 | 0.00 | 89 | 1012.4 |
| 20260906053702 | 77 | 321 | 2.0 | 3.0 | 0.00 | 0.65 | 0.00 | 89 | 1012.4 |
| 20260906053602 | 77 | 328 | 2.0 | 3.0 | 0.00 | 0.65 | 0.00 | 89 | 1012.4 |
| 20260906053402 | 77 | 323 | 2.0 | 3.0 | 0.00 | 0.65 | 0.00 | 89 | 1012.4 |
| 20260906053302 | 77 | 312 | 2.0 | 3.0 | 0.00 | 0.65 | 0.00 | 89 | 1012.4 |
| 20260906053201 | 77 | 311 | 2.0 | 3.0 | 0.00 | 0.65 | 0.00 | 89 | 1012.4 |
| 20260906053102 | 77 | 319 | 2.0 | 3.0 | 0.00 | 0.65 | 0.00 | 89 | 1012.4 |
| 20260906053004 | 77 | 300 | 3.0 | 3.0 | 0.00 | 0.65 | 0.00 | 89 | 1012.4 |
| 20260906052902 | 77 | 326 | 2.0 | 3.0 | 0.00 | 0.65 | 0.00 | 89 | 1012.4 |
| 20260906052802 | 77 | 309 | 2.0 | 3.0 | 0.00 | 0.65 | 0.00 | 89 | 1012.4 |
| 20260906052701 | 77 | 311 | 3.0 | 3.0 | 0.00 | 0.65 | 0.00 | 89 | 1012.4 |
| 20260906052602 | 77 | 312 | 2.0 | 3.0 | 0.00 | 0.65 | 0.00 | 89 | 1012.4 |
| 20260906052504 | 77 | 316 | 3.0 | 3.0 | 0.00 | 0.65 | 0.00 | 89 | 1012.3 |
| 20260906052402 | 77 | 314 | 2.0 | 3.0 | 0.00 | 0.65 | 0.00 | 89 | 1012.3 |
| 20260906052305 | 76 | 326 | 2.0 | 3.0 | 0.00 | 0.65 | 0.00 | 89 | 1012.3 |
| 20260906052201 | 76 | 326 | 2.0 | 3.0 | 0.00 | 0.65 | 0.00 | 89 | 1012.3 |
| 20260906052102 | 76 | 317 | 3.0 | 3.0 | 0.00 | 0.65 | 0.00 | 89 | 1012.3 |
| 20260906052006 | 76 | 311 | 2.0 | 3.0 | 0.00 | 0.65 | 0.00 | 89 | 1012.3 |
| 20260906051902 | 76 | 302 | 1.0 | 3.0 | 0.00 | 0.65 | 0.00 | 89 | 1012.3 |
| 20260906051800 | 76 | 302 | 1.0 | 3.0 | 0.00 | 0.65 | 0.00 | 89 | 1012.4 |
| 20260906051702 | 76 | 302 | 2.0 | 3.0 | 0.00 | 0.65 | 0.00 | 89 | 1012.4 |
| 20260906051602 | 76 | 307 | 1.0 | 3.0 | 0.00 | 0.65 | 0.00 | 89 | 1012.4 |
| 20260906051504 | 76 | 304 | 2.0 | 3.0 | 0.00 | 0.65 | 0.00 | 89 | 1012.5 |
| 20260906051402 | 76 | 309 | 2.0 | 3.0 | 0.00 | 0.65 | 0.00 | 89 | 1012.5 |
| 20260906051301 | 76 | 326 | 2.0 | 3.0 | 0.00 | 0.65 | 0.00 | 89 | 1012.5 |
| 20260906051204 | 76 | 338 | 2.0 | 3.0 | 0.00 | 0.65 | 0.00 | 89 | 1012.5 |
| 20260906051102 | 76 | 312 | 1.0 | 3.0 | 0.00 | 0.65 | 0.00 | 89 | 1012.5 |
| 20260906051005 | 76 | 305 | 2.0 | 3.0 | 0.00 | 0.65 | 0.00 | 89 | 1012.4 |
| 20260906050901 | 76 | 307 | 2.0 | 3.0 | 0.00 | 0.65 | 0.00 | 89 | 1012.5 |
| 20260906050701 | 76 | 309 | 2.0 | 3.0 | 0.00 | 0.65 | 0.00 | 89 | 1012.4 |
| 20260906050601 | 76 | 295 | 2.0 | 3.0 | 0.00 | 0.65 | 0.00 | 89 | 1012.4 |
| 20260906050504 | 76 | 295 | 2.0 | 3.0 | 0.00 | 0.65 | 0.00 | 89 | 1012.4 |
| 20260906050302 | 76 | 309 | 1.0 | 3.0 | 0.00 | 0.65 | 0.00 | 89 | 1012.4 |
| 20260906050201 | 76 | 311 | 2.0 | 3.0 | 0.00 | 0.65 | 0.00 | 89 | 1012.5 |
| 20260906045902 | 76 | 328 | 1.0 | 2.0 | 0.00 | 0.65 | 0.65 | 89 | 1012.3 |
| 20260906045802 | 76 | 326 | 2.0 | 2.0 | 0.00 | 0.65 | 0.65 | 89 | 1012.3 |
| 20260906045702 | 76 | 307 | 2.0 | 2.0 | 0.00 | 0.65 | 0.65 | 89 | 1012.3 |
| 20260906045602 | 76 | 319 | 2.0 | 3.0 | 0.00 | 0.65 | 0.65 | 88 | 1012.3 |
| 20260906045502 | 76 | 331 | 0.0 | 3.0 | 0.00 | 0.65 | 0.65 | 88 | 1012.4 |
| 20260906045400 | 76 | 309 | 2.0 | 3.0 | 0.00 | 0.65 | 0.65 | 88 | 1012.4 |
| 20260906045305 | 76 | 302 | 0.0 | 3.0 | 0.00 | 0.65 | 0.65 | 88 | 1012.4 |
| 20260906045203 | 76 | 303 | 1.0 | 3.0 | 0.00 | 0.65 | 0.65 | 88 | 1012.4 |
| 20260906045100 | 76 | 293 | 0.0 | 3.0 | 0.00 | 0.65 | 0.65 | 88 | 1012.4 |
| 20260906045006 | 76 | 302 | 0.0 | 3.0 | 0.00 | 0.65 | 0.65 | 88 | 1012.4 |
| 20260906044901 | 76 | 295 | 1.0 | 3.0 | 0.00 | 0.65 | 0.65 | 88 | 1012.4 |
| 20260906044801 | 76 | 316 | 0.0 | 3.0 | 0.00 | 0.65 | 0.65 | 88 | 1012.4 |
| 20260906044702 | 76 | 316 | 1.0 | 3.0 | 0.00 | 0.65 | 0.65 | 88 | 1012.4 |
| 20260906044603 | 76 | 305 | 2.0 | 3.0 | 0.00 | 0.65 | 0.65 | 88 | 1012.5 |
| 20260906044401 | 76 | 300 | 2.0 | 3.0 | 0.00 | 0.65 | 0.65 | 88 | 1012.4 |
| 20260906044102 | 76 | 302 | 2.0 | 3.0 | 0.00 | 0.65 | 0.65 | 88 | 1012.5 |
| 20260906044005 | 76 | 278 | 0.0 | 3.0 | 0.00 | 0.65 | 0.65 | 88 | 1012.5 |
| 20260906043901 | 77 | 293 | 1.0 | 3.0 | 0.00 | 0.65 | 0.65 | 88 | 1012.5 |
| 20260906043801 | 77 | 305 | 1.0 | 3.0 | 0.00 | 0.65 | 0.65 | 88 | 1012.5 |
| 20260906043503 | 77 | 298 | 2.0 | 3.0 | 0.00 | 0.65 | 0.65 | 88 | 1012.5 |
| 20260906043402 | 77 | 283 | 3.0 | 3.0 | 0.00 | 0.65 | 0.65 | 88 | 1012.5 |
| 20260906043201 | 77 | 326 | 2.0 | 3.0 | 0.00 | 0.65 | 0.65 | 88 | 1012.5 |
| 20260906043101 | 76 | 307 | 2.0 | 3.0 | 0.00 | 0.65 | 0.65 | 88 | 1012.5 |
| 20260906043008 | 76 | 319 | 2.0 | 3.0 | 0.00 | 0.65 | 0.65 | 88 | 1012.5 |
| 20260906042901 | 76 | 349 | 2.0 | 3.0 | 0.00 | 0.65 | 0.65 | 88 | 1012.5 |
| 20260906042804 | 76 | 333 | 2.0 | 3.0 | 0.00 | 0.65 | 0.65 | 88 | 1012.5 |
| 20260906042701 | 76 | 330 | 1.0 | 3.0 | 0.00 | 0.65 | 0.65 | 88 | 1012.5 |
| 20260906042601 | 77 | 317 | 2.0 | 3.0 | 0.00 | 0.65 | 0.65 | 88 | 1012.6 |
| 20260906042504 | 76 | 323 | 2.0 | 3.0 | 0.00 | 0.65 | 0.65 | 88 | 1012.6 |
| 20260906042402 | 76 | 316 | 2.0 | 3.0 | 0.00 | 0.65 | 0.65 | 88 | 1012.6 |
| 20260906042201 | 76 | 340 | 1.0 | 3.0 | 0.00 | 0.65 | 0.65 | 88 | 1012.6 |
| 20260906042101 | 76 | 319 | 1.0 | 3.0 | 0.00 | 0.65 | 0.65 | 88 | 1012.6 |
| 20260906041801 | 76 | 312 | 2.0 | 3.0 | 0.00 | 0.65 | 0.65 | 88 | 1012.6 |
| 20260906041702 | 77 | 333 | 2.0 | 3.0 | 0.00 | 0.65 | 0.65 | 88 | 1012.5 |
| 20260906041602 | 76 | 311 | 2.0 | 3.0 | 0.00 | 0.65 | 0.65 | 88 | 1012.5 |
| 20260906041504 | 76 | 316 | 3.0 | 3.0 | 0.00 | 0.65 | 0.65 | 88 | 1012.5 |
| 20260906041402 | 76 | 312 | 2.0 | 3.0 | 0.00 | 0.65 | 0.65 | 88 | 1012.5 |
| 20260906041301 | 76 | 323 | 2.0 | 3.0 | 0.00 | 0.65 | 0.65 | 87 | 1012.5 |
| 20260906041101 | 77 | 293 | 1.0 | 3.0 | 0.00 | 0.65 | 0.65 | 87 | 1012.4 |
| 20260906041004 | 77 | 295 | 2.0 | 3.0 | 0.00 | 0.65 | 0.65 | 87 | 1012.5 |
| 20260906040903 | 77 | 285 | 0.0 | 3.0 | 0.00 | 0.65 | 0.65 | 87 | 1012.6 |
| 20260906040703 | 77 | 280 | 0.0 | 3.0 | 0.00 | 0.65 | 0.65 | 87 | 1012.6 |
| 20260906040601 | 77 | 270 | 2.0 | 3.0 | 0.00 | 0.65 | 0.65 | 87 | 1012.6 |
| 20260906040504 | 77 | 261 | 0.0 | 3.0 | 0.00 | 0.65 | 0.65 | 87 | 1012.6 |
| 20260906040403 | 77 | 272 | 1.0 | 3.0 | 0.00 | 0.65 | 0.65 | 87 | 1012.6 |
| 20260906040302 | 77 | 309 | 2.0 | 3.0 | 0.00 | 0.65 | 0.65 | 87 | 1012.7 |
| 20260906040201 | 77 | 286 | 3.0 | 3.0 | 0.00 | 0.65 | 0.65 | 87 | 1012.7 |
| 20260906040005 | 77 | 316 | 2.0 | 3.0 | 0.00 | 0.65 | 0.65 | 87 | 1012.7 |
| 20260906035901 | 77 | 297 | 2.0 | 2.0 | 0.00 | 0.65 | 0.65 | 87 | 1012.6 |
| 20260906035801 | 77 | 323 | 1.0 | 2.0 | 0.00 | 0.65 | 0.65 | 87 | 1012.6 |
| 20260906035702 | 77 | 314 | 1.0 | 2.0 | 0.00 | 0.65 | 0.65 | 87 | 1012.6 |
| 20260906035602 | 77 | 302 | 0.0 | 3.0 | 0.00 | 0.65 | 0.65 | 87 | 1012.6 |
| 20260906035504 | 77 | 304 | 0.0 | 3.0 | 0.00 | 0.65 | 0.65 | 87 | 1012.6 |
| 20260906035403 | 77 | 317 | 0.0 | 3.0 | 0.00 | 0.65 | 0.65 | 87 | 1012.6 |
| 20260906035305 | 77 | 309 | 0.0 | 3.0 | 0.00 | 0.65 | 0.65 | 87 | 1012.7 |
| 20260906035203 | 77 | 312 | 0.0 | 3.0 | 0.00 | 0.65 | 0.65 | 87 | 1012.6 |
| 20260906035102 | 77 | 295 | 2.0 | 3.0 | 0.00 | 0.65 | 0.65 | 87 | 1012.8 |
| 20260906035004 | 77 | 314 | 0.0 | 3.0 | 0.00 | 0.65 | 0.65 | 87 | 1012.8 |
| 20260906034902 | 77 | 296 | 2.0 | 3.0 | 0.00 | 0.65 | 0.65 | 87 | 1012.8 |
| 20260906034701 | 77 | 314 | 2.0 | 3.0 | 0.00 | 0.65 | 0.65 | 87 | 1012.9 |
| 20260906034601 | 77 | 300 | 2.0 | 3.0 | 0.00 | 0.65 | 0.65 | 87 | 1012.9 |
| 20260906034504 | 77 | 295 | 2.0 | 3.0 | 0.00 | 0.65 | 0.65 | 87 | 1013.0 |
| 20260906034302 | 77 | 310 | 2.0 | 3.0 | 0.00 | 0.65 | 0.65 | 87 | 1012.8 |
| 20260906034202 | 77 | 300 | 2.0 | 3.0 | 0.00 | 0.65 | 0.65 | 87 | 1012.9 |
| 20260906034101 | 77 | 314 | 2.0 | 3.0 | 0.00 | 0.65 | 0.65 | 87 | 1013.0 |
| 20260906034005 | 77 | 305 | 2.0 | 3.0 | 0.00 | 0.65 | 0.65 | 87 | 1013.0 |
| 20260906033902 | 77 | 312 | 3.0 | 3.0 | 0.00 | 0.65 | 0.65 | 87 | 1013.0 |
| 20260906033802 | 77 | 323 | 2.0 | 3.0 | 0.00 | 0.65 | 0.65 | 87 | 1013.0 |
| 20260906033702 | 77 | 324 | 2.0 | 3.0 | 0.00 | 0.65 | 0.65 | 87 | 1012.9 |
| 20260906033601 | 77 | 309 | 2.0 | 3.0 | 0.00 | 0.65 | 0.65 | 87 | 1013.0 |
| 20260906033504 | 77 | 319 | 3.0 | 3.0 | 0.00 | 0.65 | 0.65 | 87 | 1013.0 |
| 20260906033301 | 77 | 342 | 2.0 | 3.0 | 0.00 | 0.65 | 0.65 | 87 | 1012.9 |
| 20260906033202 | 77 | 321 | 2.0 | 3.0 | 0.00 | 0.65 | 0.65 | 87 | 1013.0 |
| 20260906033101 | 77 | 340 | 2.0 | 3.0 | 0.00 | 0.65 | 0.65 | 87 | 1013.0 |
| 20260906033004 | 77 | 329 | 2.0 | 3.0 | 0.00 | 0.65 | 0.65 | 87 | 1013.0 |
| 20260906032901 | 77 | 317 | 2.0 | 3.0 | 0.00 | 0.65 | 0.65 | 87 | 1013.0 |
| 20260906032803 | 77 | 307 | 2.0 | 3.0 | 0.00 | 0.65 | 0.65 | 87 | 1013.1 |
| 20260906032702 | 77 | 300 | 2.0 | 3.0 | 0.00 | 0.65 | 0.65 | 88 | 1013.0 |
| 20260906032602 | 77 | 311 | 2.0 | 3.0 | 0.00 | 0.65 | 0.65 | 88 | 1013.0 |
| 20260906032504 | 77 | 319 | 2.0 | 3.0 | 0.00 | 0.65 | 0.65 | 88 | 1013.0 |
| 20260906032402 | 77 | 309 | 2.0 | 3.0 | 0.00 | 0.65 | 0.65 | 88 | 1013.1 |
| 20260906032305 | 77 | 314 | 2.0 | 2.0 | 0.00 | 0.65 | 0.65 | 88 | 1013.1 |
| 20260906032103 | 77 | 295 | 2.0 | 3.0 | 0.00 | 0.65 | 0.65 | 88 | 1013.1 |
| 20260906032005 | 77 | 323 | 2.0 | 3.0 | 0.00 | 0.65 | 0.65 | 88 | 1013.1 |
| 20260906031803 | 77 | 326 | 0.0 | 3.0 | 0.00 | 0.65 | 0.65 | 88 | 1013.1 |
| 20260906031701 | 77 | 288 | 1.0 | 3.0 | 0.00 | 0.65 | 0.65 | 88 | 1013.1 |
| 20260906031602 | 77 | 311 | 0.0 | 3.0 | 0.00 | 0.65 | 0.65 | 88 | 1013.2 |
| 20260906031302 | 77 | 316 | 1.0 | 3.0 | 0.00 | 0.65 | 0.65 | 88 | 1013.2 |
| 20260906031201 | 78 | 317 | 0.0 | 3.0 | 0.00 | 0.65 | 0.65 | 88 | 1013.2 |
| 20260906031004 | 78 | 302 | 1.0 | 3.0 | 0.00 | 0.65 | 0.65 | 88 | 1013.2 |
| 20260906030901 | 77 | 312 | 2.0 | 3.0 | 0.00 | 0.65 | 0.65 | 88 | 1013.3 |
| 20260906030802 | 77 | 301 | 1.0 | 3.0 | 0.00 | 0.65 | 0.65 | 88 | 1013.3 |
| 20260906030701 | 77 | 307 | 1.0 | 3.0 | 0.00 | 0.65 | 0.65 | 88 | 1013.3 |
| 20260906030603 | 77 | 330 | 1.0 | 3.0 | 0.00 | 0.65 | 0.65 | 88 | 1013.2 |
| 20260906030503 | 77 | 319 | 2.0 | 3.0 | 0.00 | 0.65 | 0.65 | 88 | 1013.3 |
| 20260906030401 | 77 | 321 | 2.0 | 3.0 | 0.00 | 0.65 | 0.65 | 88 | 1013.2 |
| 20260906030302 | 77 | 328 | 2.0 | 3.0 | 0.00 | 0.65 | 0.65 | 88 | 1013.2 |
| 20260906030203 | 78 | 303 | 2.0 | 3.0 | 0.00 | 0.65 | 0.65 | 88 | 1013.2 |
| 20260906030007 | 77 | 314 | 1.0 | 3.0 | 0.00 | 0.65 | 0.65 | 88 | 1013.1 |
| 20260906025902 | 77 | 321 | 2.0 | 3.0 | 0.00 | 0.65 | 0.65 | 88 | 1013.1 |
| 20260906025801 | 77 | 330 | 2.0 | 3.0 | 0.00 | 0.65 | 0.65 | 88 | 1013.1 |
| 20260906025703 | 78 | 326 | 2.0 | 3.0 | 0.00 | 0.65 | 0.65 | 88 | 1013.1 |
| 20260906025602 | 78 | 309 | 2.0 | 3.0 | 0.00 | 0.65 | 0.65 | 89 | 1013.1 |
| 20260906025504 | 78 | 307 | 2.0 | 3.0 | 0.00 | 0.65 | 0.65 | 89 | 1013.0 |
| 20260906025402 | 78 | 302 | 2.0 | 3.0 | 0.00 | 0.65 | 0.65 | 89 | 1013.0 |
| 20260906025306 | 78 | 297 | 2.0 | 3.0 | 0.00 | 0.65 | 0.65 | 89 | 1013.0 |
| 20260906025203 | 78 | 295 | 2.0 | 3.0 | 0.00 | 0.65 | 0.65 | 89 | 1013.0 |
| 20260906025102 | 78 | 305 | 2.0 | 3.0 | 0.00 | 0.65 | 0.65 | 89 | 1012.9 |
| 20260906024903 | 78 | 323 | 0.0 | 3.0 | 0.00 | 0.65 | 0.65 | 89 | 1012.8 |
| 20260906024800 | 78 | 309 | 1.0 | 3.0 | 0.00 | 0.65 | 0.65 | 89 | 1012.7 |
| 20260906024701 | 78 | 303 | 2.0 | 3.0 | 0.00 | 0.65 | 0.65 | 89 | 1012.7 |
| 20260906024602 | 78 | 337 | 0.0 | 3.0 | 0.00 | 0.65 | 0.65 | 89 | 1012.8 |
| 20260906024504 | 78 | 312 | 1.0 | 3.0 | 0.00 | 0.65 | 0.65 | 89 | 1012.8 |
| 20260906024301 | 78 | 287 | 2.0 | 3.0 | 0.00 | 0.65 | 0.65 | 89 | 1012.8 |
| 20260906024202 | 78 | 302 | 2.0 | 3.0 | 0.00 | 0.65 | 0.65 | 89 | 1012.8 |
| 20260906024004 | 78 | 296 | 2.0 | 3.0 | 0.00 | 0.65 | 0.65 | 89 | 1012.9 |
| 20260906023903 | 78 | 307 | 2.0 | 3.0 | 0.00 | 0.65 | 0.65 | 89 | 1013.0 |
| 20260906023802 | 78 | 293 | 2.0 | 3.0 | 0.00 | 0.65 | 0.65 | 89 | 1013.1 |
| 20260906023702 | 78 | 286 | 2.0 | 3.0 | 0.00 | 0.65 | 0.65 | 89 | 1012.9 |
| 20260906023602 | 78 | 295 | 2.0 | 3.0 | 0.00 | 0.65 | 0.65 | 89 | 1013.0 |
| 20260906023402 | 78 | 289 | 2.0 | 3.0 | 0.00 | 0.65 | 0.65 | 89 | 1013.0 |
| 20260906023301 | 78 | 302 | 1.0 | 3.0 | 0.00 | 0.65 | 0.65 | 89 | 1013.0 |
| 20260906023102 | 78 | 319 | 2.0 | 3.0 | 0.00 | 0.65 | 0.65 | 89 | 1012.9 |
| 20260906023004 | 78 | 310 | 2.0 | 3.0 | 0.00 | 0.65 | 0.65 | 89 | 1012.8 |
| 20260906022802 | 78 | 302 | 2.0 | 3.0 | 0.00 | 0.65 | 0.65 | 89 | 1012.8 |
| 20260906022702 | 78 | 277 | 2.0 | 3.0 | 0.00 | 0.65 | 0.65 | 89 | 1012.8 |
| 20260906022503 | 78 | 300 | 3.0 | 3.0 | 0.00 | 0.65 | 0.65 | 89 | 1012.7 |
| 20260906022403 | 78 | 278 | 2.0 | 3.0 | 0.00 | 0.65 | 0.65 | 89 | 1012.7 |
| 20260906022301 | 78 | 279 | 3.0 | 3.0 | 0.00 | 0.65 | 0.65 | 89 | 1012.7 |
| 20260906022202 | 78 | 277 | 2.0 | 3.0 | 0.00 | 0.65 | 0.65 | 89 | 1012.7 |
| 20260906021901 | 78 | 297 | 2.0 | 3.0 | 0.00 | 0.65 | 0.65 | 89 | 1012.6 |
| 20260906021802 | 78 | 281 | 2.0 | 3.0 | 0.00 | 0.65 | 0.65 | 89 | 1012.6 |
| 20260906021702 | 78 | 310 | 2.0 | 3.0 | 0.00 | 0.65 | 0.65 | 89 | 1012.6 |
| 20260906021602 | 78 | 297 | 2.0 | 3.0 | 0.00 | 0.65 | 0.65 | 89 | 1012.6 |
| 20260906021504 | 78 | 316 | 2.0 | 3.0 | 0.00 | 0.65 | 0.65 | 89 | 1012.5 |
| 20260906021403 | 78 | 287 | 2.0 | 3.0 | 0.00 | 0.65 | 0.65 | 89 | 1012.5 |
| 20260906021302 | 78 | 281 | 2.0 | 3.0 | 0.00 | 0.65 | 0.65 | 89 | 1012.5 |
| 20260906021202 | 78 | 296 | 1.0 | 3.0 | 0.00 | 0.65 | 0.65 | 88 | 1012.5 |
| 20260906021102 | 78 | 307 | 3.0 | 3.0 | 0.00 | 0.65 | 0.65 | 88 | 1012.4 |
| 20260906020902 | 78 | 279 | 2.0 | 3.0 | 0.00 | 0.65 | 0.65 | 88 | 1012.4 |
| 20260906020702 | 78 | 316 | 1.0 | 3.0 | 0.00 | 0.65 | 0.65 | 88 | 1012.3 |
| 20260906020602 | 78 | 271 | 2.0 | 3.0 | 0.00 | 0.65 | 0.65 | 88 | 1012.3 |
| 20260906020402 | 78 | 309 | 2.0 | 3.0 | 0.00 | 0.65 | 0.65 | 88 | 1012.3 |
| 20260906020301 | 78 | 300 | 2.0 | 3.0 | 0.00 | 0.65 | 0.65 | 88 | 1012.2 |
| 20260906020202 | 78 | 303 | 2.0 | 3.0 | 0.00 | 0.65 | 0.65 | 88 | 1012.3 |
| 20260906020104 | 78 | 295 | 2.0 | 3.0 | 0.00 | 0.65 | 0.65 | 88 | 1012.3 |
| 20260906020004 | 78 | 304 | 2.0 | 3.0 | 0.00 | 0.65 | 0.65 | 88 | 1012.3 |
| 20260906015903 | 78 | 295 | 2.0 | 3.0 | 0.00 | 0.65 | 0.65 | 88 | 1012.3 |
| 20260906015802 | 78 | 295 | 2.0 | 3.0 | 0.00 | 0.65 | 0.65 | 88 | 1012.3 |
| 20260906015702 | 78 | 301 | 2.0 | 3.0 | 0.00 | 0.65 | 0.65 | 88 | 1012.3 |
| 20260906015602 | 78 | 293 | 2.0 | 3.0 | 0.00 | 0.65 | 0.65 | 88 | 1012.4 |
| 20260906015504 | 78 | 284 | 2.0 | 3.0 | 0.00 | 0.65 | 0.65 | 88 | 1012.4 |
| 20260906015401 | 78 | 302 | 2.0 | 3.0 | 0.00 | 0.65 | 0.65 | 88 | 1012.4 |
| 20260906015305 | 78 | 317 | 2.0 | 3.0 | 0.00 | 0.65 | 0.65 | 88 | 1012.3 |
| 20260906015201 | 78 | 303 | 2.0 | 3.0 | 0.00 | 0.65 | 0.65 | 88 | 1012.5 |
| 20260906015102 | 78 | 333 | 1.0 | 3.0 | 0.00 | 0.65 | 0.65 | 88 | 1012.4 |
| 20260906015006 | 78 | 314 | 2.0 | 3.0 | 0.00 | 0.65 | 0.65 | 88 | 1012.4 |
| 20260906014903 | 78 | 296 | 2.0 | 3.0 | 0.00 | 0.65 | 0.65 | 88 | 1012.3 |
| 20260906014801 | 78 | 319 | 2.0 | 3.0 | 0.00 | 0.65 | 0.65 | 88 | 1012.3 |
| 20260906014600 | 78 | 321 | 2.0 | 3.0 | 0.00 | 0.65 | 0.65 | 88 | 1012.3 |
| 20260906014504 | 78 | 310 | 2.0 | 3.0 | 0.00 | 0.65 | 0.65 | 88 | 1012.2 |
| 20260906014402 | 78 | 316 | 0.0 | 3.0 | 0.00 | 0.65 | 0.65 | 88 | 1012.2 |
| 20260906014202 | 78 | 300 | 2.0 | 3.0 | 0.00 | 0.65 | 0.65 | 88 | 1012.1 |
| 20260906014101 | 78 | 324 | 0.0 | 3.0 | 0.00 | 0.65 | 0.65 | 88 | 1012.1 |
| 20260906013901 | 78 | 309 | 2.0 | 3.0 | 0.00 | 0.65 | 0.65 | 88 | 1012.1 |
| 20260906013702 | 78 | 296 | 2.0 | 3.0 | 0.00 | 0.65 | 0.65 | 88 | 1011.9 |
| 20260906013601 | 78 | 293 | 1.0 | 3.0 | 0.00 | 0.65 | 0.65 | 88 | 1012.0 |
| 20260906013504 | 79 | 305 | 2.0 | 3.0 | 0.00 | 0.65 | 0.65 | 88 | 1011.9 |
| 20260906013403 | 79 | 311 | 2.0 | 3.0 | 0.00 | 0.65 | 0.65 | 88 | 1011.9 |
| 20260906013301 | 79 | 302 | 3.0 | 3.0 | 0.00 | 0.65 | 0.65 | 88 | 1012.0 |
| 20260906013201 | 79 | 328 | 2.0 | 3.0 | 0.00 | 0.65 | 0.65 | 88 | 1011.9 |
| 20260906013102 | 78 | 295 | 2.0 | 3.0 | 0.00 | 0.65 | 0.65 | 88 | 1011.9 |
| 20260906013005 | 79 | 295 | 2.0 | 3.0 | 0.00 | 0.65 | 0.65 | 87 | 1011.9 |
| 20260906012902 | 79 | 333 | 0.0 | 3.0 | 0.00 | 0.65 | 0.65 | 87 | 1011.9 |
| 20260906012803 | 79 | 304 | 2.0 | 3.0 | 0.00 | 0.65 | 0.65 | 87 | 1011.9 |
| 20260906012702 | 79 | 326 | 1.0 | 3.0 | 0.00 | 0.65 | 0.65 | 87 | 1011.9 |
| 20260906012601 | 79 | 303 | 2.0 | 3.0 | 0.00 | 0.65 | 0.65 | 87 | 1011.9 |
| 20260906012504 | 79 | 283 | 2.0 | 3.0 | 0.00 | 0.65 | 0.65 | 87 | 1011.9 |
| 20260906012402 | 79 | 307 | 1.0 | 3.0 | 0.00 | 0.65 | 0.65 | 87 | 1011.9 |
| 20260906012301 | 79 | 314 | 2.0 | 3.0 | 0.00 | 0.65 | 0.65 | 87 | 1012.0 |
| 20260906012202 | 79 | 308 | 2.0 | 3.0 | 0.00 | 0.65 | 0.65 | 87 | 1012.0 |
| 20260906012102 | 79 | 262 | 0.0 | 3.0 | 0.00 | 0.65 | 0.65 | 87 | 1011.9 |
| 20260906012005 | 79 | 304 | 2.0 | 3.0 | 0.00 | 0.65 | 0.65 | 87 | 1011.9 |
| 20260906011802 | 79 | 286 | 0.0 | 3.0 | 0.00 | 0.65 | 0.65 | 87 | 1011.8 |
| 20260906011703 | 79 | 303 | 2.0 | 3.0 | 0.00 | 0.65 | 0.65 | 87 | 1011.8 |
| 20260906011602 | 79 | 294 | 2.0 | 3.0 | 0.00 | 0.65 | 0.65 | 87 | 1011.8 |
| 20260906011504 | 79 | 283 | 2.0 | 3.0 | 0.00 | 0.65 | 0.65 | 87 | 1011.6 |
| 20260906011402 | 79 | 312 | 1.0 | 3.0 | 0.00 | 0.65 | 0.65 | 87 | 1011.7 |
| 20260906011303 | 79 | 295 | 2.0 | 3.0 | 0.00 | 0.65 | 0.65 | 87 | 1011.7 |
| 20260906011201 | 79 | 314 | 2.0 | 3.0 | 0.00 | 0.65 | 0.65 | 87 | 1011.7 |
| 20260906011102 | 79 | 307 | 2.0 | 3.0 | 0.00 | 0.65 | 0.65 | 87 | 1011.7 |
| 20260906011004 | 79 | 316 | 2.0 | 3.0 | 0.00 | 0.65 | 0.65 | 87 | 1011.7 |
| 20260906010902 | 79 | 290 | 2.0 | 3.0 | 0.00 | 0.65 | 0.65 | 87 | 1011.7 |
| 20260906010802 | 79 | 314 | 2.0 | 3.0 | 0.00 | 0.65 | 0.65 | 87 | 1011.6 |
| 20260906010602 | 79 | 330 | 2.0 | 3.0 | 0.00 | 0.65 | 0.65 | 87 | 1011.6 |
| 20260906010402 | 79 | 303 | 2.0 | 3.0 | 0.00 | 0.65 | 0.65 | 87 | 1011.5 |
| 20260906010301 | 79 | 293 | 1.0 | 3.0 | 0.00 | 0.65 | 0.65 | 87 | 1011.5 |
| 20260906010202 | 79 | 316 | 2.0 | 3.0 | 0.00 | 0.65 | 0.65 | 87 | 1011.6 |
| 20260906010006 | 79 | 295 | 2.0 | 3.0 | 0.00 | 0.65 | 0.65 | 87 | 1011.5 |
| 20260906005902 | 79 | 314 | 2.0 | 3.0 | 0.00 | 0.65 | 0.65 | 86 | 1011.5 |
| 20260906005801 | 79 | 309 | 1.0 | 3.0 | 0.00 | 0.65 | 0.65 | 86 | 1011.5 |
| 20260906005701 | 79 | 314 | 2.0 | 3.0 | 0.00 | 0.65 | 0.65 | 86 | 1011.5 |
| 20260906005601 | 79 | 300 | 2.0 | 3.0 | 0.00 | 0.65 | 0.65 | 86 | 1011.5 |
| 20260906005503 | 79 | 295 | 2.0 | 3.0 | 0.00 | 0.65 | 0.65 | 86 | 1011.6 |
| 20260906005402 | 79 | 300 | 3.0 | 3.0 | 0.00 | 0.65 | 0.65 | 86 | 1011.5 |
| 20260906005306 | 79 | 307 | 2.0 | 3.0 | 0.00 | 0.65 | 0.65 | 86 | 1011.5 |
| 20260906005005 | 79 | 263 | 0.0 | 3.0 | 0.00 | 0.65 | 0.65 | 86 | 1011.5 |
| 20260906004904 | 79 | 280 | 2.0 | 3.0 | 0.00 | 0.65 | 0.65 | 86 | 1011.4 |
| 20260906004801 | 79 | 283 | 2.0 | 3.0 | 0.00 | 0.65 | 0.65 | 86 | 1011.4 |
| 20260906004603 | 79 | 291 | 2.0 | 3.0 | 0.00 | 0.65 | 0.65 | 86 | 1011.4 |
| 20260906004505 | 79 | 285 | 3.0 | 3.0 | 0.00 | 0.65 | 0.65 | 86 | 1011.4 |
| 20260906004403 | 79 | 312 | 2.0 | 3.0 | 0.00 | 0.65 | 0.65 | 85 | 1011.5 |
| 20260906004302 | 79 | 314 | 2.0 | 3.0 | 0.00 | 0.65 | 0.65 | 85 | 1011.4 |
| 20260906004202 | 79 | 309 | 1.0 | 3.0 | 0.00 | 0.65 | 0.65 | 85 | 1011.4 |
| 20260906004004 | 79 | 319 | 2.0 | 3.0 | 0.00 | 0.65 | 0.65 | 85 | 1011.4 |
| 20260906003901 | 79 | 293 | 2.0 | 3.0 | 0.00 | 0.65 | 0.65 | 85 | 1011.4 |
| 20260906003802 | 79 | 312 | 2.0 | 3.0 | 0.00 | 0.65 | 0.65 | 85 | 1011.4 |
| 20260906003701 | 79 | 301 | 2.0 | 3.0 | 0.00 | 0.65 | 0.65 | 85 | 1011.4 |
| 20260906003602 | 79 | 316 | 2.0 | 3.0 | 0.00 | 0.65 | 0.65 | 85 | 1011.5 |
| 20260906003503 | 79 | 303 | 2.0 | 3.0 | 0.00 | 0.65 | 0.65 | 85 | 1011.5 |
| 20260906003401 | 79 | 303 | 3.0 | 3.0 | 0.00 | 0.65 | 0.65 | 85 | 1011.4 |
| 20260906003303 | 79 | 329 | 2.0 | 3.0 | 0.00 | 0.65 | 0.65 | 85 | 1011.5 |
| 20260906003201 | 79 | 293 | 2.0 | 3.0 | 0.00 | 0.65 | 0.65 | 85 | 1011.4 |
| 20260906003103 | 79 | 295 | 2.0 | 3.0 | 0.00 | 0.65 | 0.65 | 85 | 1011.4 |
| 20260906003004 | 79 | 287 | 2.0 | 3.0 | 0.00 | 0.65 | 0.65 | 85 | 1011.3 |
| 20260906002802 | 79 | 287 | 0.0 | 3.0 | 0.00 | 0.65 | 0.65 | 85 | 1011.2 |
| 20260906002701 | 80 | 275 | 0.0 | 3.0 | 0.00 | 0.65 | 0.65 | 85 | 1011.3 |
| 20260906002401 | 80 | 292 | 2.0 | 3.0 | 0.00 | 0.65 | 0.65 | 84 | 1011.3 |
| 20260906002305 | 80 | 281 | 2.0 | 3.0 | 0.00 | 0.65 | 0.65 | 84 | 1011.4 |
| 20260906002201 | 80 | 297 | 2.0 | 3.0 | 0.00 | 0.65 | 0.65 | 84 | 1011.4 |
| 20260906002103 | 80 | 296 | 0.0 | 3.0 | 0.00 | 0.65 | 0.65 | 84 | 1011.4 |
| 20260906002004 | 80 | 302 | 1.0 | 3.0 | 0.00 | 0.65 | 0.65 | 84 | 1011.5 |
| 20260906001902 | 80 | 329 | 0.0 | 3.0 | 0.00 | 0.65 | 0.65 | 84 | 1011.5 |
| 20260906001802 | 80 | 286 | 2.0 | 3.0 | 0.00 | 0.65 | 0.65 | 84 | 1011.5 |
| 20260906001701 | 80 | 303 | 2.0 | 3.0 | 0.00 | 0.65 | 0.65 | 84 | 1011.5 |
| 20260906001601 | 80 | 256 | 0.0 | 3.0 | 0.00 | 0.65 | 0.65 | 84 | 1011.4 |
| 20260906001506 | 80 | 274 | 2.0 | 3.0 | 0.00 | 0.65 | 0.65 | 84 | 1011.4 |
| 20260906001401 | 80 | 300 | 0.0 | 3.0 | 0.00 | 0.65 | 0.65 | 83 | 1011.4 |
| 20260906001302 | 80 | 261 | 0.0 | 3.0 | 0.00 | 0.65 | 0.65 | 83 | 1011.5 |
| 20260906001202 | 80 | 279 | 2.0 | 3.0 | 0.00 | 0.65 | 0.65 | 83 | 1011.4 |
| 20260906001103 | 80 | 284 | 2.0 | 3.0 | 0.00 | 0.65 | 0.65 | 83 | 1011.4 |
| 20260906000902 | 80 | 284 | 1.0 | 3.0 | 0.00 | 0.65 | 0.65 | 83 | 1011.4 |
| 20260906000801 | 80 | 286 | 3.0 | 3.0 | 0.00 | 0.65 | 0.65 | 83 | 1011.4 |
| 20260906000702 | 80 | 293 | 0.0 | 3.0 | 0.00 | 0.65 | 0.65 | 83 | 1011.4 |
| 20260906000601 | 80 | 284 | 2.0 | 3.0 | 0.00 | 0.65 | 0.65 | 83 | 1011.2 |
| 20260906000504 | 80 | 270 | 2.0 | 3.0 | 0.00 | 0.65 | 0.65 | 82 | 1011.2 |
| 20260906000403 | 80 | 328 | 2.0 | 3.0 | 0.00 | 0.65 | 0.65 | 82 | 1011.2 |
| 20260906000303 | 80 | 304 | 2.0 | 3.0 | 0.00 | 0.65 | 0.65 | 82 | 1011.3 |
| 20260906000200 | 81 | 305 | 1.0 | 3.0 | 0.00 | 0.65 | 0.65 | 82 | 1011.1 |
| 20260906000004 | 81 | 288 | 2.0 | 3.0 | 0.00 | 0.65 | 0.65 | 82 | 1011.2 |
| 20260905235902 | 81 | 326 | 2.0 | 3.0 | 0.00 | 0.65 | 0.65 | 82 | 1011.3 |
| 20260905235802 | 81 | 274 | 3.0 | 3.0 | 0.00 | 0.65 | 0.65 | 82 | 1011.3 |
| 20260905235701 | 81 | 319 | 2.0 | 3.0 | 0.00 | 0.65 | 0.65 | 82 | 1011.4 |
| 20260905235601 | 81 | 321 | 3.0 | 3.0 | 0.00 | 0.65 | 0.65 | 82 | 1011.4 |
| 20260905235504 | 81 | 338 | 2.0 | 3.0 | 0.00 | 0.65 | 0.65 | 82 | 1011.4 |
| 20260905235202 | 81 | 333 | 2.0 | 3.0 | 0.00 | 0.65 | 0.65 | 82 | 1011.4 |
| 20260905235101 | 81 | 292 | 0.0 | 3.0 | 0.00 | 0.65 | 0.65 | 82 | 1011.4 |
| 20260905235003 | 81 | 345 | 2.0 | 3.0 | 0.00 | 0.65 | 0.65 | 82 | 1011.4 |
| 20260905234901 | 81 | 271 | 0.0 | 3.0 | 0.00 | 0.65 | 0.65 | 82 | 1011.4 |
| 20260905234802 | 81 | 287 | 0.0 | 3.0 | 0.00 | 0.65 | 0.65 | 81 | 1011.4 |
| 20260905234602 | 81 | 278 | 1.0 | 3.0 | 0.00 | 0.65 | 0.65 | 81 | 1011.5 |
| 20260905234504 | 81 | 311 | 0.0 | 3.0 | 0.00 | 0.65 | 0.65 | 81 | 1011.5 |
| 20260905234402 | 81 | 260 | 3.0 | 3.0 | 0.00 | 0.65 | 0.65 | 81 | 1011.5 |
| 20260905234301 | 81 | 287 | 0.0 | 3.0 | 0.00 | 0.65 | 0.65 | 81 | 1011.4 |
| 20260905234103 | 81 | 296 | 0.0 | 3.0 | 0.00 | 0.65 | 0.65 | 81 | 1011.6 |
| 20260905233903 | 81 | 262 | 1.0 | 3.0 | 0.00 | 0.65 | 0.65 | 81 | 1011.6 |
| 20260905233802 | 82 | 259 | 0.0 | 3.0 | 0.00 | 0.65 | 0.65 | 81 | 1011.6 |
| 20260905233702 | 82 | 212 | 0.0 | 4.0 | 0.00 | 0.65 | 0.65 | 81 | 1011.6 |
| 20260905233504 | 82 | 297 | 0.0 | 4.0 | 0.00 | 0.65 | 0.65 | 81 | 1011.5 |
| 20260905233403 | 82 | 296 | 0.0 | 4.0 | 0.00 | 0.65 | 0.65 | 80 | 1011.5 |
| 20260905233301 | 82 | 273 | 0.0 | 4.0 | 0.00 | 0.65 | 0.65 | 80 | 1011.5 |
| 20260905233201 | 82 | 277 | 2.0 | 4.0 | 0.00 | 0.65 | 0.65 | 80 | 1011.5 |
| 20260905233101 | 82 | 270 | 1.0 | 4.0 | 0.00 | 0.65 | 0.65 | 80 | 1011.6 |
| 20260905232902 | 82 | 297 | 2.0 | 4.0 | 0.00 | 0.65 | 0.65 | 80 | 1011.5 |
| 20260905232802 | 82 | 315 | 0.0 | 4.0 | 0.00 | 0.65 | 0.65 | 80 | 1011.5 |
| 20260905232503 | 82 | 233 | 0.0 | 3.0 | 0.00 | 0.65 | 0.65 | 80 | 1011.6 |
| 20260905232400 | 82 | 292 | 0.0 | 3.0 | 0.00 | 0.65 | 0.65 | 80 | 1011.6 |
| 20260905232301 | 82 | 303 | 2.0 | 4.0 | 0.00 | 0.65 | 0.65 | 80 | 1011.6 |
| 20260905232101 | 82 | 274 | 1.0 | 5.0 | 0.00 | 0.65 | 0.65 | 79 | 1011.5 |
| 20260905231902 | 83 | 281 | 2.0 | 5.0 | 0.00 | 0.65 | 0.65 | 79 | 1011.5 |
| 20260905231802 | 83 | 249 | 0.0 | 5.0 | 0.00 | 0.65 | 0.65 | 78 | 1011.5 |
| 20260905231702 | 83 | 128 | 0.0 | 5.0 | 0.00 | 0.65 | 0.65 | 79 | 1011.5 |
| 20260905231601 | 83 | 279 | 2.0 | 5.0 | 0.00 | 0.65 | 0.65 | 79 | 1011.6 |
| 20260905231503 | 83 | 258 | 2.0 | 5.0 | 0.00 | 0.65 | 0.65 | 79 | 1011.5 |
| 20260905231401 | 83 | 226 | 0.0 | 5.0 | 0.00 | 0.65 | 0.65 | 79 | 1011.6 |
| 20260905231302 | 83 | 275 | 3.0 | 5.0 | 0.00 | 0.65 | 0.65 | 79 | 1011.6 |
| 20260905231201 | 83 | 269 | 0.0 | 3.0 | 0.00 | 0.65 | 0.65 | 79 | 1011.6 |
| 20260905231101 | 84 | 307 | 3.0 | 3.0 | 0.00 | 0.65 | 0.65 | 78 | 1011.7 |
| 20260905231003 | 84 | 245 | 2.0 | 3.0 | 0.00 | 0.65 | 0.65 | 78 | 1011.7 |
| 20260905230901 | 84 | 241 | 0.0 | 4.0 | 0.00 | 0.65 | 0.65 | 78 | 1011.7 |
| 20260905230801 | 84 | 285 | 3.0 | 4.0 | 0.00 | 0.65 | 0.65 | 78 | 1011.7 |
| 20260905230702 | 84 | 287 | 3.0 | 4.0 | 0.00 | 0.65 | 0.65 | 78 | 1011.7 |
| 20260905230601 | 84 | 15 | 3.0 | 4.0 | 0.00 | 0.65 | 0.65 | 78 | 1011.6 |
| 20260905230503 | 84 | 277 | 0.0 | 4.0 | 0.00 | 0.65 | 0.65 | 77 | 1011.6 |
| 20260905230403 | 84 | 288 | 0.0 | 4.0 | 0.00 | 0.65 | 0.65 | 77 | 1011.6 |
| 20260905230301 | 84 | 262 | 0.0 | 4.0 | 0.00 | 0.65 | 0.65 | 77 | 1011.6 |
| 20260905230201 | 84 | 289 | 0.0 | 4.0 | 0.00 | 0.65 | 0.65 | 77 | 1011.6 |
| 20260905230101 | 84 | 333 | 0.0 | 4.0 | 0.00 | 0.65 | 0.65 | 77 | 1011.6 |
| 20260905230004 | 84 | 296 | 2.0 | 4.0 | 0.00 | 0.65 | 0.65 | 78 | 1011.6 |
| 20260905225901 | 84 | 263 | 0.0 | 2.0 | 0.00 | 0.65 | 0.65 | 78 | 1011.6 |
| 20260905225801 | 84 | 333 | 2.0 | 3.0 | 0.00 | 0.65 | 0.65 | 78 | 1011.6 |
| 20260905225601 | 84 | 340 | 0.0 | 3.0 | 0.00 | 0.65 | 0.65 | 77 | 1011.7 |
| 20260905225503 | 84 | 267 | 1.0 | 3.0 | 0.00 | 0.65 | 0.65 | 78 | 1011.6 |
| 20260905225400 | 84 | 319 | 0.0 | 3.0 | 0.00 | 0.65 | 0.65 | 78 | 1011.7 |
| 20260905225305 | 84 | 319 | 0.0 | 3.0 | 0.00 | 0.65 | 0.65 | 78 | 1011.7 |
| 20260905225201 | 84 | 319 | 0.0 | 3.0 | 0.00 | 0.65 | 0.65 | 78 | 1011.7 |
| 20260905225101 | 84 | 319 | 0.0 | 3.0 | 0.00 | 0.65 | 0.65 | 78 | 1011.7 |
| 20260905225003 | 83 | 306 | 0.0 | 3.0 | 0.00 | 0.65 | 0.65 | 78 | 1011.7 |
| 20260905224800 | 83 | 273 | 0.0 | 3.0 | 0.00 | 0.65 | 0.65 | 78 | 1011.7 |
| 20260905224600 | 83 | 256 | 0.0 | 3.0 | 0.00 | 0.65 | 0.65 | 80 | 1011.6 |
| 20260905224502 | 83 | 311 | 0.0 | 3.0 | 0.00 | 0.65 | 0.65 | 80 | 1011.6 |
| 20260905224400 | 83 | 300 | 0.0 | 3.0 | 0.00 | 0.65 | 0.65 | 80 | 1011.6 |
| 20260905224300 | 83 | 287 | 2.0 | 3.0 | 0.00 | 0.65 | 0.65 | 79 | 1011.5 |
| 20260905224200 | 83 | 270 | 0.0 | 3.0 | 0.00 | 0.65 | 0.65 | 79 | 1011.6 |
| 20260905224101 | 83 | 295 | 2.0 | 3.0 | 0.00 | 0.65 | 0.65 | 79 | 1011.6 |
| 20260905224003 | 83 | 319 | 1.0 | 3.0 | 0.00 | 0.65 | 0.65 | 79 | 1011.6 |
| 20260905223800 | 84 | 326 | 0.0 | 3.0 | 0.00 | 0.65 | 0.65 | 79 | 1011.6 |
| 20260905223701 | 84 | 292 | 1.0 | 3.0 | 0.00 | 0.65 | 0.65 | 79 | 1011.6 |
| 20260905223502 | 84 | 311 | 2.0 | 3.0 | 0.00 | 0.65 | 0.65 | 79 | 1011.5 |
| 20260905223400 | 84 | 317 | 1.0 | 2.0 | 0.00 | 0.65 | 0.65 | 79 | 1011.6 |
| 20260905223300 | 84 | 285 | 1.0 | 3.0 | 0.00 | 0.65 | 0.65 | 79 | 1011.6 |
| 20260905223200 | 84 | 285 | 0.0 | 3.0 | 0.00 | 0.65 | 0.65 | 79 | 1011.6 |
| 20260905223100 | 84 | 282 | 0.0 | 3.0 | 0.00 | 0.65 | 0.65 | 79 | 1011.6 |